Observation data for Tarzan on 09/11/2019      Previous  Date       Current Mesonet Observations  Soil Data  Daily Summary Page  Observations in Plain Language
KTA1 110500Z 15009KT 24/18 A3007 RMK A01 T02400182  RH  070%=      5-min Rain = 0
KTA1 110501Z 15009KT 24/18 A3007 RMK A01 T02400182  RH  070%=      5-min Rain = 0
KTA1 110502Z 15008KT 24/18 A3007 RMK A01 T02400182  RH  070%=      5-min Rain = 0
KTA1 110503Z 15008KT 24/18 A3007 RMK A01 T02400181  RH  070%=      5-min Rain = 0
KTA1 110504Z 15008KT 24/18 A3007 RMK A01 T02400181  RH  069%=      5-min Rain = 0
KTA1 110505Z 15009KT 24/18 A3007 RMK A01 T02400180  RH  069%=      5-min Rain = 0
KTA1 110506Z 15009KT 24/18 A3007 RMK A01 T02400180  RH  069%=      5-min Rain = 0
KTA1 110507Z 15009KT 24/18 A3008 RMK A01 T02400180  RH  069%=      5-min Rain = 0
KTA1 110508Z 15008KT 24/18 A3008 RMK A01 T02400179  RH  069%=      5-min Rain = 0
KTA1 110509Z 15010KT 24/18 A3008 RMK A01 T02400179  RH  069%=      5-min Rain = 0
KTA1 110510Z 15009KT 24/18 A3008 RMK A01 T02400179  RH  069%=      5-min Rain = 0
KTA1 110511Z 16007KT 24/18 A3008 RMK A01 T02400179  RH  069%=      5-min Rain = 0
KTA1 110512Z 16009KT 24/18 A3008 RMK A01 T02400179  RH  069%=      5-min Rain = 0
KTA1 110513Z 16010KT 24/18 A3008 RMK A01 T02400178  RH  069%=      5-min Rain = 0
KTA1 110514Z 16010KT 24/18 A3008 RMK A01 T02400178  RH  068%=      5-min Rain = 0
KTA1 110515Z 16010KT 24/18 A3008 RMK A01 T02400178  RH  068%=      5-min Rain = 0
KTA1 110516Z 16009KT 24/18 A3008 RMK A01 T02400178  RH  068%=      5-min Rain = 0
KTA1 110517Z 16010KT 24/18 A3008 RMK A01 T02400177  RH  068%=      5-min Rain = 0
KTA1 110518Z 17010KT 24/18 A3008 RMK A01 T02400177  RH  068%=      5-min Rain = 0
KTA1 110519Z 17010KT 24/18 A3008 RMK A01 T02400177  RH  068%=      5-min Rain = 0
KTA1 110520Z 16010KT 24/18 A3008 RMK A01 T02410177  RH  068%=      5-min Rain = 0
KTA1 110521Z 16009KT 24/18 A3008 RMK A01 T02400176  RH  067%=      5-min Rain = 0
KTA1 110522Z 16012KT 24/18 A3008 RMK A01 T02400176  RH  067%=      5-min Rain = 0
KTA1 110523Z 16011KT 24/18 A3008 RMK A01 T02410176  RH  067%=      5-min Rain = 0
KTA1 110524Z 16010G15KT 24/18 A3008 RMK A01 T02410177  RH  067%=      5-min Rain = 0
KTA1 110525Z 16012KT 24/18 A3008 RMK A01 T02410177  RH  067%=      5-min Rain = 0
KTA1 110526Z 16010KT 24/18 A3008 RMK A01 T02410176  RH  067%=      5-min Rain = 0
KTA1 110527Z 16011KT 24/18 A3008 RMK A01 T02410177  RH  067%=      5-min Rain = 0
KTA1 110528Z 16009G14KT 24/18 A3008 RMK A01 T02410177  RH  067%=      5-min Rain = 0
KTA1 110529Z 16010KT 24/18 A3008 RMK A01 T02400177  RH  067%=      5-min Rain = 0
KTA1 110530Z 16011KT 24/18 A3008 RMK A01 T02400177  RH  068%=      5-min Rain = 0
KTA1 110531Z 16011KT 24/18 A3008 RMK A01 T02400176  RH  068%=      5-min Rain = 0
KTA1 110532Z 16011KT 24/18 A3008 RMK A01 T02400177  RH  068%=      5-min Rain = 0
KTA1 110533Z 16012KT 24/18 A3008 RMK A01 T02400176  RH  068%=      5-min Rain = 0
KTA1 110534Z 16009KT 24/18 A3008 RMK A01 T02400176  RH  068%=      5-min Rain = 0
KTA1 110535Z 16009KT 24/18 A3008 RMK A01 T02400177  RH  068%=      5-min Rain = 0
KTA1 110536Z 16009KT 24/18 A3008 RMK A01 T02400177  RH  068%=      5-min Rain = 0
KTA1 110537Z 16008KT 24/18 A3008 RMK A01 T02390176  RH  068%=      5-min Rain = 0
KTA1 110538Z 16009KT 24/18 A3008 RMK A01 T02390177  RH  068%=      5-min Rain = 0
KTA1 110539Z 16009KT 24/18 A3008 RMK A01 T02390177  RH  068%=      5-min Rain = 0
KTA1 110540Z 16010KT 24/18 A3008 RMK A01 T02390177  RH  068%=      5-min Rain = 0
KTA1 110541Z 16009KT 24/18 A3008 RMK A01 T02390176  RH  068%=      5-min Rain = 0
KTA1 110542Z 15009KT 24/18 A3008 RMK A01 T02390176  RH  068%=      5-min Rain = 0
KTA1 110543Z 15007KT 24/18 A3008 RMK A01 T02390177  RH  068%=      5-min Rain = 0
KTA1 110544Z 16009KT 24/18 A3008 RMK A01 T02380177  RH  068%=      5-min Rain = 0
KTA1 110545Z 16008KT 24/18 A3008 RMK A01 T02380177  RH  068%=      5-min Rain = 0
KTA1 110546Z 16008KT 24/18 A3008 RMK A01 T02380177  RH  069%=      5-min Rain = 0
KTA1 110547Z 16010KT 24/18 A3008 RMK A01 T02370176  RH  069%=      5-min Rain = 0
KTA1 110548Z 16010KT 24/18 A3008 RMK A01 T02370176  RH  069%=      5-min Rain = 0
KTA1 110549Z 15009KT 24/18 A3008 RMK A01 T02370176  RH  069%=      5-min Rain = 0
KTA1 110550Z 15008KT 24/18 A3008 RMK A01 T02370176  RH  069%=      5-min Rain = 0
KTA1 110551Z 15008KT 24/18 A3008 RMK A01 T02370177  RH  069%=      5-min Rain = 0
KTA1 110552Z 15009KT 24/18 A3008 RMK A01 T02370177  RH  069%=      5-min Rain = 0
KTA1 110553Z 15009KT 24/18 A3008 RMK A01 T02360177  RH  069%=      5-min Rain = 0
KTA1 110554Z 15008KT 24/18 A3008 RMK A01 T02360176  RH  069%=      5-min Rain = 0
KTA1 110555Z 16008KT 24/18 A3008 RMK A01 T02360177  RH  069%=      5-min Rain = 0
KTA1 110556Z 16008KT 24/18 A3008 RMK A01 T02360177  RH  069%=      5-min Rain = 0
KTA1 110557Z 15010KT 24/18 A3008 RMK A01 T02360177  RH  069%=      5-min Rain = 0
KTA1 110558Z 15008KT 24/18 A3009 RMK A01 T02360176  RH  069%=      5-min Rain = 0
KTA1 110559Z 15009KT 24/18 A3009 RMK A01 T02360177  RH  069%=      5-min Rain = 0
KTA1 110600Z 16010KT 24/18 A3009 RMK A01 T02360177  RH  069%=      5-min Rain = 0
KTA1 110601Z 15009KT 24/18 A3009 RMK A01 T02360177  RH  069%=      5-min Rain = 0
KTA1 110602Z 15008KT 24/18 A3009 RMK A01 T02360176  RH  069%=      5-min Rain = 0
KTA1 110603Z 15010KT 24/18 A3009 RMK A01 T02360177  RH  069%=      5-min Rain = 0
KTA1 110604Z 16010KT 24/18 A3009 RMK A01 T02360177  RH  069%=      5-min Rain = 0
KTA1 110605Z 15008KT 24/18 A3009 RMK A01 T02360177  RH  069%=      5-min Rain = 0
KTA1 110606Z 16009G14KT 24/18 A3009 RMK A01 T02360177  RH  069%=      5-min Rain = 0
KTA1 110607Z 15011KT 24/18 A3009 RMK A01 T02360177  RH  070%=      5-min Rain = 0
KTA1 110608Z 15011KT 24/18 A3009 RMK A01 T02360177  RH  070%=      5-min Rain = 0
KTA1 110609Z 15011KT 24/18 A3008 RMK A01 T02360177  RH  070%=      5-min Rain = 0
KTA1 110610Z 15011KT 24/18 A3009 RMK A01 T02360177  RH  069%=      5-min Rain = 0
KTA1 110611Z 15011KT 24/18 A3008 RMK A01 T02360177  RH  069%=      5-min Rain = 0
KTA1 110612Z 15011KT 24/18 A3008 RMK A01 T02360177  RH  069%=      5-min Rain = 0
KTA1 110613Z 15011KT 24/18 A3008 RMK A01 T02360177  RH  070%=      5-min Rain = 0
KTA1 110614Z 15011KT 24/18 A3008 RMK A01 T02360177  RH  070%=      5-min Rain = 0
KTA1 110615Z 15012KT 24/18 A3008 RMK A01 T02360177  RH  070%=      5-min Rain = 0
KTA1 110616Z 15010KT 24/18 A3008 RMK A01 T02360177  RH  070%=      5-min Rain = 0
KTA1 110617Z 14012KT 24/18 A3008 RMK A01 T02360178  RH  070%=      5-min Rain = 0
KTA1 110618Z 15011KT 24/18 A3008 RMK A01 T02360178  RH  070%=      5-min Rain = 0
KTA1 110619Z 15012KT 24/18 A3009 RMK A01 T02370178  RH  070%=      5-min Rain = 0
KTA1 110620Z 14014KT 24/18 A3008 RMK A01 T02360178  RH  070%=      5-min Rain = 0
KTA1 110621Z 14013KT 24/18 A3009 RMK A01 T02370178  RH  070%=      5-min Rain = 0
KTA1 110622Z 15012KT 24/18 A3009 RMK A01 T02370178  RH  070%=      5-min Rain = 0
KTA1 110623Z 15013G18KT 24/18 A3009 RMK A01 T02370179  RH  070%=      5-min Rain = 0
KTA1 110624Z 15014KT 24/18 A3009 RMK A01 T02370179  RH  070%=      5-min Rain = 0
KTA1 110625Z 15011G16KT 24/18 A3009 RMK A01 T02370179  RH  070%=      5-min Rain = 0
KTA1 110626Z 15013KT 24/18 A3009 RMK A01 T02370180  RH  070%=      5-min Rain = 0
KTA1 110627Z 15014KT 24/18 A3009 RMK A01 T02370180  RH  070%=      5-min Rain = 0
KTA1 110628Z 15012KT 24/18 A3009 RMK A01 T02370180  RH  070%=      5-min Rain = 0
KTA1 110629Z 15012KT 24/18 A3009 RMK A01 T02370180  RH  070%=      5-min Rain = 0
KTA1 110630Z 15012KT 24/18 A3009 RMK A01 T02370180  RH  070%=      5-min Rain = 0
KTA1 110631Z 15011KT 24/18 A3009 RMK A01 T02370181  RH  071%=      5-min Rain = 0
KTA1 110632Z 15010KT 24/18 A3009 RMK A01 T02360180  RH  071%=      5-min Rain = 0
KTA1 110633Z 15011KT 24/18 A3009 RMK A01 T02350180  RH  071%=      5-min Rain = 0
KTA1 110634Z 14010KT 24/18 A3009 RMK A01 T02350180  RH  071%=      5-min Rain = 0
KTA1 110635Z 14011KT 24/18 A3009 RMK A01 T02350180  RH  071%=      5-min Rain = 0
KTA1 110636Z 14013KT 23/18 A3009 RMK A01 T02340180  RH  072%=      5-min Rain = 0
KTA1 110637Z 15012KT 23/18 A3009 RMK A01 T02340181  RH  072%=      5-min Rain = 0
KTA1 110638Z 15012KT 23/18 A3009 RMK A01 T02340180  RH  072%=      5-min Rain = 0
KTA1 110639Z 15011KT 23/18 A3009 RMK A01 T02340180  RH  072%=      5-min Rain = 0
KTA1 110640Z 15011KT 23/18 A3009 RMK A01 T02340180  RH  072%=      5-min Rain = 0
KTA1 110641Z 15010KT 23/18 A3009 RMK A01 T02340181  RH  072%=      5-min Rain = 0
KTA1 110642Z 15010KT 23/18 A3009 RMK A01 T02340181  RH  072%=      5-min Rain = 0
KTA1 110643Z 15012KT 23/18 A3009 RMK A01 T02330181  RH  072%=      5-min Rain = 0
KTA1 110644Z 15014G19KT 23/18 A3009 RMK A01 T02340181  RH  072%=      5-min Rain = 0
KTA1 110645Z 15013G18KT 23/18 A3009 RMK A01 T02330181  RH  072%=      5-min Rain = 0
KTA1 110646Z 15012KT 23/18 A3009 RMK A01 T02340181  RH  072%=      5-min Rain = 0
KTA1 110647Z 15014KT 23/18 A3009 RMK A01 T02330181  RH  072%=      5-min Rain = 0
KTA1 110648Z 15014KT 23/18 A3009 RMK A01 T02330181  RH  072%=      5-min Rain = 0
KTA1 110649Z 16012KT 23/18 A3009 RMK A01 T02340181  RH  072%=      5-min Rain = 0
KTA1 110650Z 15012KT 23/18 A3009 RMK A01 T02340181  RH  072%=      5-min Rain = 0
KTA1 110651Z 14012KT 23/18 A3009 RMK A01 T02330181  RH  072%=      5-min Rain = 0
KTA1 110652Z 15014KT 23/18 A3009 RMK A01 T02330181  RH  073%=      5-min Rain = 0
KTA1 110653Z 14013KT 23/18 A3009 RMK A01 T02330181  RH  073%=      5-min Rain = 0
KTA1 110654Z 15012KT 23/18 A3009 RMK A01 T02330181  RH  073%=      5-min Rain = 0
KTA1 110655Z 15011KT 23/18 A3009 RMK A01 T02320181  RH  073%=      5-min Rain = 0
KTA1 110656Z 14012KT 23/18 A3009 RMK A01 T02320181  RH  073%=      5-min Rain = 0
KTA1 110657Z 15012KT 23/18 A3009 RMK A01 T02320181  RH  073%=      5-min Rain = 0
KTA1 110658Z 15011KT 23/18 A3009 RMK A01 T02310181  RH  073%=      5-min Rain = 0
KTA1 110659Z 15009G14KT 23/18 A3009 RMK A01 T02310181  RH  073%=      5-min Rain = 0
KTA1 110700Z 15013KT 23/18 A3009 RMK A01 T02310181  RH  074%=      5-min Rain = 0
KTA1 110701Z 15012KT 23/18 A3009 RMK A01 T02300181  RH  074%=      5-min Rain = 0
KTA1 110702Z 15012KT 23/18 A3009 RMK A01 T02300181  RH  074%=      5-min Rain = 0
KTA1 110703Z 15012KT 23/18 A3009 RMK A01 T02300181  RH  074%=      5-min Rain = 0
KTA1 110704Z 15012KT 23/18 A3009 RMK A01 T02300181  RH  074%=      5-min Rain = 0
KTA1 110705Z 14012KT 23/18 A3009 RMK A01 T02300181  RH  074%=      5-min Rain = 0
KTA1 110706Z 15011KT 23/18 A3009 RMK A01 T02300181  RH  074%=      5-min Rain = 0
KTA1 110707Z 15011KT 23/18 A3009 RMK A01 T02300181  RH  074%=      5-min Rain = 0
KTA1 110708Z 15013KT 23/18 A3009 RMK A01 T02300181  RH  074%=      5-min Rain = 0
KTA1 110709Z 15012KT 23/18 A3009 RMK A01 T02290181  RH  074%=      5-min Rain = 0
KTA1 110710Z 14012KT 23/18 A3008 RMK A01 T02300181  RH  074%=      5-min Rain = 0
KTA1 110711Z 15011KT 23/18 A3008 RMK A01 T02300181  RH  074%=      5-min Rain = 0
KTA1 110712Z 15009KT 23/18 A3008 RMK A01 T02290181  RH  074%=      5-min Rain = 0
KTA1 110713Z 15010KT 23/18 A3008 RMK A01 T02290181  RH  074%=      5-min Rain = 0
KTA1 110714Z 15011KT 23/18 A3008 RMK A01 T02290181  RH  074%=      5-min Rain = 0
KTA1 110715Z 15010KT 23/18 A3008 RMK A01 T02290181  RH  074%=      5-min Rain = 0
KTA1 110716Z 15011KT 23/18 A3008 RMK A01 T02280181  RH  075%=      5-min Rain = 0
KTA1 110717Z 15010KT 23/18 A3008 RMK A01 T02280181  RH  075%=      5-min Rain = 0
KTA1 110718Z 15009KT 23/18 A3008 RMK A01 T02280181  RH  075%=      5-min Rain = 0
KTA1 110719Z 15011KT 23/18 A3008 RMK A01 T02280181  RH  075%=      5-min Rain = 0
KTA1 110720Z 15010KT 23/18 A3008 RMK A01 T02280181  RH  075%=      5-min Rain = 0
KTA1 110721Z 15010KT 23/18 A3008 RMK A01 T02280181  RH  075%=      5-min Rain = 0
KTA1 110722Z 16010KT 23/18 A3008 RMK A01 T02280181  RH  075%=      5-min Rain = 0
KTA1 110723Z 16010KT 23/18 A3008 RMK A01 T02270181  RH  075%=      5-min Rain = 0
KTA1 110724Z 16009KT 23/18 A3008 RMK A01 T02270181  RH  075%=      5-min Rain = 0
KTA1 110725Z 16009KT 23/18 A3008 RMK A01 T02270181  RH  075%=      5-min Rain = 0
KTA1 110726Z 15009KT 23/18 A3008 RMK A01 T02260181  RH  075%=      5-min Rain = 0
KTA1 110727Z 16010KT 23/18 A3008 RMK A01 T02260181  RH  075%=      5-min Rain = 0
KTA1 110728Z 15009KT 23/18 A3008 RMK A01 T02260181  RH  075%=      5-min Rain = 0
KTA1 110729Z 16010KT 23/18 A3008 RMK A01 T02260181  RH  075%=      5-min Rain = 0
KTA1 110730Z 16012KT 23/18 A3008 RMK A01 T02260181  RH  076%=      5-min Rain = 0
KTA1 110731Z 15010KT 23/18 A3008 RMK A01 T02260181  RH  076%=      5-min Rain = 0
KTA1 110732Z 16009KT 23/18 A3008 RMK A01 T02260181  RH  076%=      5-min Rain = 0
KTA1 110733Z 15010KT 23/18 A3008 RMK A01 T02260181  RH  076%=      5-min Rain = 0
KTA1 110734Z 15011KT 23/18 A3008 RMK A01 T02260181  RH  076%=      5-min Rain = 0
KTA1 110735Z 15009KT 23/18 A3008 RMK A01 T02260181  RH  076%=      5-min Rain = 0
KTA1 110736Z 15009KT 23/18 A3008 RMK A01 T02260181  RH  076%=      5-min Rain = 0
KTA1 110737Z 15007KT 23/18 A3008 RMK A01 T02250181  RH  076%=      5-min Rain = 0
KTA1 110738Z 16010KT 23/18 A3008 RMK A01 T02250181  RH  076%=      5-min Rain = 0
KTA1 110739Z 16009KT 23/18 A3008 RMK A01 T02250180  RH  076%=      5-min Rain = 0
KTA1 110740Z 15010KT 23/18 A3008 RMK A01 T02250181  RH  076%=      5-min Rain = 0
KTA1 110741Z 15010KT 23/18 A3008 RMK A01 T02250181  RH  076%=      5-min Rain = 0
KTA1 110742Z 15009KT 23/18 A3008 RMK A01 T02250181  RH  076%=      5-min Rain = 0
KTA1 110743Z 15008KT 22/18 A3008 RMK A01 T02240180  RH  076%=      5-min Rain = 0
KTA1 110744Z 16009KT 22/18 A3008 RMK A01 T02240181  RH  076%=      5-min Rain = 0
KTA1 110745Z 16007KT 22/18 A3008 RMK A01 T02240180  RH  076%=      5-min Rain = 0
KTA1 110746Z 15009KT 22/18 A3008 RMK A01 T02240181  RH  077%=      5-min Rain = 0
KTA1 110747Z 16008KT 22/18 A3008 RMK A01 T02230181  RH  077%=      5-min Rain = 0
KTA1 110748Z 16009KT 22/18 A3008 RMK A01 T02230181  RH  077%=      5-min Rain = 0
KTA1 110749Z 16007KT 22/18 A3008 RMK A01 T02230180  RH  077%=      5-min Rain = 0
KTA1 110750Z 16008KT 22/18 A3008 RMK A01 T02230181  RH  077%=      5-min Rain = 0
KTA1 110751Z 16008KT 22/18 A3008 RMK A01 T02230180  RH  077%=      5-min Rain = 0
KTA1 110752Z 16007KT 22/18 A3008 RMK A01 T02220180  RH  077%=      5-min Rain = 0
KTA1 110753Z 16008KT 22/18 A3008 RMK A01 T02220180  RH  077%=      5-min Rain = 0
KTA1 110754Z 16009KT 22/18 A3008 RMK A01 T02230181  RH  077%=      5-min Rain = 0
KTA1 110755Z 16008KT 22/18 A3008 RMK A01 T02230180  RH  077%=      5-min Rain = 0
KTA1 110756Z 16008KT 22/18 A3008 RMK A01 T02230180  RH  077%=      5-min Rain = 0
KTA1 110757Z 16006KT 22/18 A3008 RMK A01 T02220180  RH  077%=      5-min Rain = 0
KTA1 110758Z 16007KT 22/18 A3008 RMK A01 T02220180  RH  077%=      5-min Rain = 0
KTA1 110759Z 16008KT 22/18 A3008 RMK A01 T02210180  RH  077%=      5-min Rain = 0
KTA1 110800Z 16007KT 22/18 A3008 RMK A01 T02210180  RH  077%=      5-min Rain = 0
KTA1 110801Z 16007KT 22/18 A3008 RMK A01 T02210180  RH  078%=      5-min Rain = 0
KTA1 110802Z 16007KT 22/18 A3009 RMK A01 T02210180  RH  078%=      5-min Rain = 0
KTA1 110803Z 16008KT 22/18 A3009 RMK A01 T02200180  RH  078%=      5-min Rain = 0
KTA1 110804Z 16008KT 22/18 A3009 RMK A01 T02200180  RH  078%=      5-min Rain = 0
KTA1 110805Z 16008KT 22/18 A3009 RMK A01 T02200180  RH  078%=      5-min Rain = 0
KTA1 110806Z 16007KT 22/18 A3009 RMK A01 T02200180  RH  078%=      5-min Rain = 0
KTA1 110807Z 16007KT 22/18 A3009 RMK A01 T02200180  RH  078%=      5-min Rain = 0
KTA1 110808Z 16007KT 22/18 A3009 RMK A01 T02200180  RH  078%=      5-min Rain = 0
KTA1 110809Z 16006KT 22/18 A3009 RMK A01 T02200180  RH  078%=      5-min Rain = 0
KTA1 110810Z 15007KT 22/18 A3009 RMK A01 T02190180  RH  078%=      5-min Rain = 0
KTA1 110811Z 15006KT 22/18 A3009 RMK A01 T02190180  RH  078%=      5-min Rain = 0
KTA1 110812Z 15005KT 22/18 A3009 RMK A01 T02190180  RH  078%=      5-min Rain = 0
KTA1 110813Z 15006KT 22/18 A3009 RMK A01 T02190180  RH  078%=      5-min Rain = 0
KTA1 110814Z 16006KT 22/18 A3009 RMK A01 T02180180  RH  079%=      5-min Rain = 0
KTA1 110815Z 16007KT 22/18 A3009 RMK A01 T02180180  RH  079%=      5-min Rain = 0
KTA1 110816Z 16008KT 22/18 A3009 RMK A01 T02180180  RH  079%=      5-min Rain = 0
KTA1 110817Z 16008KT 22/18 A3009 RMK A01 T02180179  RH  079%=      5-min Rain = 0
KTA1 110818Z 16007KT 22/18 A3009 RMK A01 T02180179  RH  079%=      5-min Rain = 0
KTA1 110819Z 16008KT 22/18 A3008 RMK A01 T02180179  RH  079%=      5-min Rain = 0
KTA1 110820Z 16008KT 22/18 A3008 RMK A01 T02180179  RH  078%=      5-min Rain = 0
KTA1 110821Z 16007KT 22/18 A3008 RMK A01 T02180179  RH  079%=      5-min Rain = 0
KTA1 110822Z 16008KT 22/18 A3008 RMK A01 T02180179  RH  078%=      5-min Rain = 0
KTA1 110823Z 16006KT 22/18 A3008 RMK A01 T02180179  RH  078%=      5-min Rain = 0
KTA1 110824Z 16007KT 22/18 A3008 RMK A01 T02170179  RH  079%=      5-min Rain = 0
KTA1 110825Z 15007KT 22/18 A3008 RMK A01 T02170179  RH  079%=      5-min Rain = 0
KTA1 110826Z 16008KT 22/18 A3008 RMK A01 T02170178  RH  079%=      5-min Rain = 0
KTA1 110827Z 15006KT 22/18 A3008 RMK A01 T02170178  RH  079%=      5-min Rain = 0
KTA1 110828Z 16007KT 22/18 A3008 RMK A01 T02170178  RH  079%=      5-min Rain = 0
KTA1 110829Z 16007KT 22/18 A3008 RMK A01 T02170179  RH  079%=      5-min Rain = 0
KTA1 110830Z 16008KT 22/18 A3008 RMK A01 T02170179  RH  079%=      5-min Rain = 0
KTA1 110831Z 16009KT 22/18 A3008 RMK A01 T02170178  RH  079%=      5-min Rain = 0
KTA1 110832Z 16008KT 22/18 A3008 RMK A01 T02160178  RH  079%=      5-min Rain = 0
KTA1 110833Z 16008KT 22/18 A3007 RMK A01 T02170178  RH  078%=      5-min Rain = 0
KTA1 110834Z 16008KT 22/18 A3007 RMK A01 T02170178  RH  078%=      5-min Rain = 0
KTA1 110835Z 16007KT 22/18 A3007 RMK A01 T02170178  RH  078%=      5-min Rain = 0
KTA1 110836Z 16007KT 22/18 A3007 RMK A01 T02170178  RH  078%=      5-min Rain = 0
KTA1 110837Z 16007KT 22/18 A3007 RMK A01 T02170178  RH  078%=      5-min Rain = 0
KTA1 110838Z 17007KT 22/18 A3007 RMK A01 T02170178  RH  078%=      5-min Rain = 0
KTA1 110839Z 16008KT 22/18 A3007 RMK A01 T02170178  RH  078%=      5-min Rain = 0
KTA1 110840Z 16007KT 22/18 A3007 RMK A01 T02170178  RH  078%=      5-min Rain = 0
KTA1 110841Z 16008KT 22/18 A3007 RMK A01 T02170178  RH  078%=      5-min Rain = 0
KTA1 110842Z 16008KT 22/18 A3007 RMK A01 T02170178  RH  078%=      5-min Rain = 0
KTA1 110843Z 16008KT 22/18 A3007 RMK A01 T02170177  RH  078%=      5-min Rain = 0
KTA1 110844Z 16009KT 22/18 A3007 RMK A01 T02170178  RH  078%=      5-min Rain = 0
KTA1 110845Z 16009KT 22/18 A3007 RMK A01 T02170177  RH  078%=      5-min Rain = 0
KTA1 110846Z 16009KT 22/18 A3007 RMK A01 T02170177  RH  078%=      5-min Rain = 0
KTA1 110847Z 16010KT 22/18 A3007 RMK A01 T02170177  RH  078%=      5-min Rain = 0
KTA1 110848Z 16009KT 22/18 A3007 RMK A01 T02170177  RH  078%=      5-min Rain = 0
KTA1 110849Z 15008KT 22/18 A3007 RMK A01 T02170177  RH  078%=      5-min Rain = 0
KTA1 110850Z 16009KT 22/18 A3007 RMK A01 T02160177  RH  078%=      5-min Rain = 0
KTA1 110851Z 16009KT 22/18 A3007 RMK A01 T02160177  RH  078%=      5-min Rain = 0
KTA1 110852Z 16008KT 22/18 A3007 RMK A01 T02170177  RH  078%=      5-min Rain = 0
KTA1 110853Z 15008KT 22/18 A3007 RMK A01 T02160177  RH  078%=      5-min Rain = 0
KTA1 110854Z 16009KT 22/18 A3007 RMK A01 T02160177  RH  078%=      5-min Rain = 0
KTA1 110855Z 16009KT 22/18 A3007 RMK A01 T02160177  RH  078%=      5-min Rain = 0
KTA1 110856Z 16008KT 22/18 A3007 RMK A01 T02160177  RH  078%=      5-min Rain = 0
KTA1 110857Z 16007KT 22/18 A3007 RMK A01 T02160177  RH  078%=      5-min Rain = 0
KTA1 110858Z 16008KT 22/18 A3007 RMK A01 T02160177  RH  078%=      5-min Rain = 0
KTA1 110859Z 16008KT 22/18 A3007 RMK A01 T02160177  RH  079%=      5-min Rain = 0
KTA1 110900Z 16010KT 22/18 A3007 RMK A01 T02160177  RH  079%=      5-min Rain = 0
KTA1 110901Z 15008KT 22/18 A3008 RMK A01 T02160177  RH  079%=      5-min Rain = 0
KTA1 110902Z 16009KT 22/18 A3007 RMK A01 T02160177  RH  079%=      5-min Rain = 0
KTA1 110903Z 16009KT 22/18 A3007 RMK A01 T02150177  RH  079%=      5-min Rain = 0
KTA1 110904Z 16009KT 22/18 A3007 RMK A01 T02150177  RH  079%=      5-min Rain = 0
KTA1 110905Z 16009KT 22/18 A3007 RMK A01 T02150177  RH  079%=      5-min Rain = 0
KTA1 110906Z 16007KT 22/18 A3007 RMK A01 T02150177  RH  079%=      5-min Rain = 0
KTA1 110907Z 15009KT 22/18 A3007 RMK A01 T02150177  RH  079%=      5-min Rain = 0
KTA1 110908Z 15007KT 22/18 A3007 RMK A01 T02150177  RH  079%=      5-min Rain = 0
KTA1 110909Z 15008KT 22/18 A3007 RMK A01 T02150177  RH  079%=      5-min Rain = 0
KTA1 110910Z 15008KT 22/18 A3007 RMK A01 T02150177  RH  079%=      5-min Rain = 0
KTA1 110911Z 15007KT 21/18 A3007 RMK A01 T02140177  RH  079%=      5-min Rain = 0
KTA1 110912Z 16008KT 21/18 A3007 RMK A01 T02140177  RH  079%=      5-min Rain = 0
KTA1 110913Z 15007KT 21/18 A3007 RMK A01 T02140177  RH  079%=      5-min Rain = 0
KTA1 110914Z 15008KT 21/18 A3007 RMK A01 T02140177  RH  080%=      5-min Rain = 0
KTA1 110915Z 15008KT 21/18 A3007 RMK A01 T02130177  RH  080%=      5-min Rain = 0
KTA1 110916Z 16007KT 21/18 A3007 RMK A01 T02130177  RH  080%=      5-min Rain = 0
KTA1 110917Z 15007KT 21/18 A3007 RMK A01 T02130177  RH  080%=      5-min Rain = 0
KTA1 110918Z 16007G12KT 21/18 A3007 RMK A01 T02130177  RH  080%=      5-min Rain = 0
KTA1 110919Z 15008KT 21/18 A3007 RMK A01 T02130177  RH  080%=      5-min Rain = 0
KTA1 110920Z 15008KT 21/18 A3007 RMK A01 T02130177  RH  080%=      5-min Rain = 0
KTA1 110921Z 16008KT 21/18 A3007 RMK A01 T02130177  RH  080%=      5-min Rain = 0
KTA1 110922Z 15008KT 21/18 A3007 RMK A01 T02130177  RH  080%=      5-min Rain = 0
KTA1 110923Z 15009KT 21/18 A3007 RMK A01 T02130177  RH  080%=      5-min Rain = 0
KTA1 110924Z 15008KT 21/18 A3007 RMK A01 T02130177  RH  080%=      5-min Rain = 0
KTA1 110925Z 16009KT 21/18 A3007 RMK A01 T02130177  RH  080%=      5-min Rain = 0
KTA1 110926Z 16008KT 21/18 A3007 RMK A01 T02130177  RH  080%=      5-min Rain = 0
KTA1 110927Z 16008KT 21/18 A3007 RMK A01 T02130177  RH  080%=      5-min Rain = 0
KTA1 110928Z 16008KT 21/18 A3007 RMK A01 T02130177  RH  080%=      5-min Rain = 0
KTA1 110929Z 16007KT 21/18 A3007 RMK A01 T02120177  RH  080%=      5-min Rain = 0
KTA1 110930Z 16007KT 21/18 A3007 RMK A01 T02120177  RH  080%=      5-min Rain = 0
KTA1 110931Z 16007KT 21/18 A3007 RMK A01 T02120177  RH  080%=      5-min Rain = 0
KTA1 110932Z 16008KT 21/18 A3007 RMK A01 T02120177  RH  080%=      5-min Rain = 0
KTA1 110933Z 15007KT 21/18 A3007 RMK A01 T02120177  RH  081%=      5-min Rain = 0
KTA1 110934Z 16008KT 21/18 A3007 RMK A01 T02110177  RH  080%=      5-min Rain = 0
KTA1 110935Z 15007KT 21/18 A3007 RMK A01 T02110177  RH  081%=      5-min Rain = 0
KTA1 110936Z 16009KT 21/18 A3007 RMK A01 T02120177  RH  081%=      5-min Rain = 0
KTA1 110937Z 15007KT 21/18 A3007 RMK A01 T02110177  RH  081%=      5-min Rain = 0
KTA1 110938Z 15006KT 21/18 A3007 RMK A01 T02110177  RH  081%=      5-min Rain = 0
KTA1 110939Z 16008KT 21/18 A3007 RMK A01 T02110177  RH  081%=      5-min Rain = 0
KTA1 110940Z 15008KT 21/18 A3007 RMK A01 T02100177  RH  081%=      5-min Rain = 0
KTA1 110941Z 15009KT 21/18 A3007 RMK A01 T02100177  RH  081%=      5-min Rain = 0
KTA1 110942Z 15009KT 21/18 A3007 RMK A01 T02110177  RH  081%=      5-min Rain = 0
KTA1 110943Z 15009KT 21/18 A3007 RMK A01 T02110177  RH  081%=      5-min Rain = 0
KTA1 110944Z 15007KT 21/18 A3007 RMK A01 T02110177  RH  081%=      5-min Rain = 0
KTA1 110945Z 15009KT 21/18 A3007 RMK A01 T02110177  RH  081%=      5-min Rain = 0
KTA1 110946Z 16008KT 21/18 A3007 RMK A01 T02110177  RH  081%=      5-min Rain = 0
KTA1 110947Z 15008KT 21/18 A3007 RMK A01 T02110177  RH  081%=      5-min Rain = 0
KTA1 110948Z 16009KT 21/18 A3007 RMK A01 T02110177  RH  081%=      5-min Rain = 0
KTA1 110949Z 15009KT 21/18 A3007 RMK A01 T02110177  RH  081%=      5-min Rain = 0
KTA1 110950Z 16008KT 21/18 A3007 RMK A01 T02100177  RH  081%=      5-min Rain = 0
KTA1 110951Z 16010KT 21/18 A3007 RMK A01 T02100177  RH  081%=      5-min Rain = 0
KTA1 110952Z 16008KT 21/18 A3007 RMK A01 T02100177  RH  081%=      5-min Rain = 0
KTA1 110953Z 16009KT 21/18 A3007 RMK A01 T02100177  RH  082%=      5-min Rain = 0
KTA1 110954Z 16010KT 21/18 A3007 RMK A01 T02100177  RH  082%=      5-min Rain = 0
KTA1 110955Z 16009KT 21/18 A3007 RMK A01 T02100177  RH  082%=      5-min Rain = 0
KTA1 110956Z 16009KT 21/18 A3007 RMK A01 T02100177  RH  082%=      5-min Rain = 0
KTA1 110957Z 16010KT 21/18 A3007 RMK A01 T02100177  RH  082%=      5-min Rain = 0
KTA1 110958Z 16008KT 21/18 A3007 RMK A01 T02100177  RH  082%=      5-min Rain = 0
KTA1 110959Z 16008G13KT 21/18 A3007 RMK A01 T02100177  RH  082%=      5-min Rain = 0
KTA1 111000Z 16009KT 21/18 A3007 RMK A01 T02100177  RH  082%=      5-min Rain = 0
KTA1 111001Z 16008KT 21/18 A3007 RMK A01 T02100177  RH  082%=      5-min Rain = 0
KTA1 111002Z 16009KT 21/18 A3007 RMK A01 T02090177  RH  082%=      5-min Rain = 0
KTA1 111003Z 15008KT 21/18 A3007 RMK A01 T02090177  RH  082%=      5-min Rain = 0
KTA1 111004Z 16010KT 21/18 A3007 RMK A01 T02090177  RH  082%=      5-min Rain = 0
KTA1 111005Z 16010KT 21/18 A3007 RMK A01 T02090177  RH  082%=      5-min Rain = 0
KTA1 111006Z 16010KT 21/18 A3007 RMK A01 T02090177  RH  082%=      5-min Rain = 0
KTA1 111007Z 16010KT 21/18 A3007 RMK A01 T02090177  RH  082%=      5-min Rain = 0
KTA1 111008Z 16010KT 21/18 A3007 RMK A01 T02090177  RH  082%=      5-min Rain = 0
KTA1 111009Z 16009KT 21/18 A3007 RMK A01 T02090177  RH  082%=      5-min Rain = 0
KTA1 111010Z 16009KT 21/18 A3007 RMK A01 T02090177  RH  082%=      5-min Rain = 0
KTA1 111011Z 16011KT 21/18 A3007 RMK A01 T02090177  RH  082%=      5-min Rain = 0
KTA1 111012Z 16010KT 21/18 A3007 RMK A01 T02090177  RH  082%=      5-min Rain = 0
KTA1 111013Z 16009KT 21/18 A3007 RMK A01 T02090176  RH  082%=      5-min Rain = 0
KTA1 111014Z 16009KT 21/18 A3007 RMK A01 T02090177  RH  082%=      5-min Rain = 0
KTA1 111015Z 16008KT 21/18 A3007 RMK A01 T02080177  RH  082%=      5-min Rain = 0
KTA1 111016Z 16009KT 21/18 A3007 RMK A01 T02080177  RH  082%=      5-min Rain = 0
KTA1 111017Z 16009KT 21/18 A3007 RMK A01 T02080177  RH  082%=      5-min Rain = 0
KTA1 111018Z 16008KT 21/18 A3007 RMK A01 T02080177  RH  082%=      5-min Rain = 0
KTA1 111019Z 15009KT 21/18 A3007 RMK A01 T02070176  RH  082%=      5-min Rain = 0
KTA1 111020Z 15008KT 21/18 A3007 RMK A01 T02070177  RH  083%=      5-min Rain = 0
KTA1 111021Z 16010KT 21/18 A3007 RMK A01 T02070177  RH  083%=      5-min Rain = 0
KTA1 111022Z 16008KT 21/18 A3007 RMK A01 T02070176  RH  083%=      5-min Rain = 0
KTA1 111023Z 15009G14KT 21/18 A3007 RMK A01 T02070177  RH  083%=      5-min Rain = 0
KTA1 111024Z 16009KT 21/18 A3007 RMK A01 T02070176  RH  083%=      5-min Rain = 0
KTA1 111025Z 15009KT 21/18 A3007 RMK A01 T02070177  RH  083%=      5-min Rain = 0
KTA1 111026Z 15009KT 21/18 A3007 RMK A01 T02070177  RH  083%=      5-min Rain = 0
KTA1 111027Z 15010KT 21/18 A3007 RMK A01 T02070177  RH  083%=      5-min Rain = 0
KTA1 111028Z 15010KT 21/18 A3007 RMK A01 T02070177  RH  083%=      5-min Rain = 0
KTA1 111029Z 15011KT 21/18 A3007 RMK A01 T02070177  RH  083%=      5-min Rain = 0
KTA1 111030Z 16010KT 21/18 A3007 RMK A01 T02070176  RH  083%=      5-min Rain = 0
KTA1 111031Z 16011KT 21/18 A3007 RMK A01 T02070176  RH  082%=      5-min Rain = 0
KTA1 111032Z 16009KT 21/18 A3007 RMK A01 T02070176  RH  082%=      5-min Rain = 0
KTA1 111033Z 16009KT 21/18 A3007 RMK A01 T02070176  RH  083%=      5-min Rain = 0
KTA1 111034Z 16009KT 21/18 A3007 RMK A01 T02070176  RH  083%=      5-min Rain = 0
KTA1 111035Z 16010KT 21/18 A3007 RMK A01 T02070176  RH  083%=      5-min Rain = 0
KTA1 111036Z 16009KT 21/18 A3007 RMK A01 T02070176  RH  083%=      5-min Rain = 0
KTA1 111037Z 16009KT 21/18 A3007 RMK A01 T02070176  RH  083%=      5-min Rain = 0
KTA1 111038Z 16009KT 21/18 A3007 RMK A01 T02070176  RH  083%=      5-min Rain = 0
KTA1 111039Z 16009KT 21/18 A3007 RMK A01 T02060176  RH  083%=      5-min Rain = 0
KTA1 111040Z 16008KT 21/18 A3007 RMK A01 T02060176  RH  083%=      5-min Rain = 0
KTA1 111041Z 16011KT 21/18 A3007 RMK A01 T02060176  RH  083%=      5-min Rain = 0
KTA1 111042Z 16009KT 21/18 A3007 RMK A01 T02060176  RH  083%=      5-min Rain = 0
KTA1 111043Z 16009KT 21/18 A3007 RMK A01 T02060176  RH  083%=      5-min Rain = 0
KTA1 111044Z 16010KT 21/18 A3007 RMK A01 T02060176  RH  083%=      5-min Rain = 0
KTA1 111045Z 16009KT 21/18 A3007 RMK A01 T02060176  RH  083%=      5-min Rain = 0
KTA1 111046Z 16010KT 21/18 A3007 RMK A01 T02060176  RH  083%=      5-min Rain = 0
KTA1 111047Z 16009KT 21/18 A3007 RMK A01 T02060176  RH  083%=      5-min Rain = 0
KTA1 111048Z 16008KT 21/18 A3007 RMK A01 T02060176  RH  083%=      5-min Rain = 0
KTA1 111049Z 16010KT 21/18 A3007 RMK A01 T02060176  RH  083%=      5-min Rain = 0
KTA1 111050Z 16009KT 21/18 A3007 RMK A01 T02070176  RH  083%=      5-min Rain = 0
KTA1 111051Z 16008KT 21/18 A3007 RMK A01 T02070176  RH  083%=      5-min Rain = 0
KTA1 111052Z 17009KT 21/18 A3007 RMK A01 T02060176  RH  083%=      5-min Rain = 0
KTA1 111053Z 17010KT 21/18 A3007 RMK A01 T02070176  RH  083%=      5-min Rain = 0
KTA1 111054Z 17010KT 21/18 A3007 RMK A01 T02070176  RH  083%=      5-min Rain = 0
KTA1 111055Z 17010KT 21/18 A3007 RMK A01 T02070176  RH  083%=      5-min Rain = 0
KTA1 111056Z 17011KT 21/18 A3007 RMK A01 T02070176  RH  083%=      5-min Rain = 0
KTA1 111057Z 17009KT 21/18 A3007 RMK A01 T02070176  RH  082%=      5-min Rain = 0
KTA1 111058Z 17010KT 21/18 A3007 RMK A01 T02070177  RH  082%=      5-min Rain = 0
KTA1 111059Z 17008KT 21/18 A3007 RMK A01 T02070176  RH  082%=      5-min Rain = 0
KTA1 111100Z 17009KT 21/18 A3007 RMK A01 T02070176  RH  082%=      5-min Rain = 0
KTA1 111101Z 17008KT 21/18 A3007 RMK A01 T02070176  RH  082%=      5-min Rain = 0
KTA1 111102Z 17009KT 21/18 A3007 RMK A01 T02070176  RH  082%=      5-min Rain = 0
KTA1 111103Z 17010KT 21/18 A3007 RMK A01 T02070176  RH  083%=      5-min Rain = 0
KTA1 111104Z 17010G15KT 21/18 A3007 RMK A01 T02070176  RH  082%=      5-min Rain = 0
KTA1 111105Z 17012KT 21/18 A3007 RMK A01 T02070176  RH  082%=      5-min Rain = 0
KTA1 111106Z 17010KT 21/18 A3007 RMK A01 T02070176  RH  082%=      5-min Rain = 0
KTA1 111107Z 17011KT 21/18 A3007 RMK A01 T02080176  RH  082%=      5-min Rain = 0
KTA1 111108Z 17012KT 21/18 A3007 RMK A01 T02070176  RH  082%=      5-min Rain = 0
KTA1 111109Z 17012KT 21/18 A3007 RMK A01 T02080176  RH  082%=      5-min Rain = 0
KTA1 111110Z 17009KT 21/18 A3007 RMK A01 T02080176  RH  082%=      5-min Rain = 0
KTA1 111111Z 17013KT 21/18 A3007 RMK A01 T02080176  RH  082%=      5-min Rain = 0
KTA1 111112Z 17012KT 21/18 A3007 RMK A01 T02080176  RH  082%=      5-min Rain = 0
KTA1 111113Z 17012KT 21/18 A3007 RMK A01 T02080176  RH  082%=      5-min Rain = 0
KTA1 111114Z 17012KT 21/18 A3007 RMK A01 T02080176  RH  082%=      5-min Rain = 0
KTA1 111115Z 17011KT 21/18 A3007 RMK A01 T02080176  RH  082%=      5-min Rain = 0
KTA1 111116Z 18011KT 21/18 A3007 RMK A01 T02080176  RH  082%=      5-min Rain = 0
KTA1 111117Z 18012KT 21/18 A3007 RMK A01 T02080176  RH  082%=      5-min Rain = 0
KTA1 111118Z 18013KT 21/18 A3007 RMK A01 T02080176  RH  082%=      5-min Rain = 0
KTA1 111119Z 18010KT 21/18 A3007 RMK A01 T02090176  RH  081%=      5-min Rain = 0
KTA1 111120Z 17016G21KT 21/18 A3007 RMK A01 T02090176  RH  081%=      5-min Rain = 0
KTA1 111121Z 18014KT 21/18 A3007 RMK A01 T02090176  RH  081%=      5-min Rain = 0
KTA1 111122Z 18013KT 21/18 A3007 RMK A01 T02090176  RH  081%=      5-min Rain = 0
KTA1 111123Z 18014KT 21/18 A3007 RMK A01 T02100176  RH  081%=      5-min Rain = 0
KTA1 111124Z 18015KT 21/18 A3007 RMK A01 T02100176  RH  081%=      5-min Rain = 0
KTA1 111125Z 17011KT 21/18 A3007 RMK A01 T02100176  RH  081%=      5-min Rain = 0
KTA1 111126Z 18015KT 21/18 A3007 RMK A01 T02100176  RH  081%=      5-min Rain = 0
KTA1 111127Z 17010KT 21/18 A3007 RMK A01 T02100176  RH  081%=      5-min Rain = 0
KTA1 111128Z 18010KT 21/18 A3007 RMK A01 T02110177  RH  081%=      5-min Rain = 0
KTA1 111129Z 17014KT 21/18 A3007 RMK A01 T02110177  RH  081%=      5-min Rain = 0
KTA1 111130Z 17012KT 21/18 A3007 RMK A01 T02110176  RH  081%=      5-min Rain = 0
KTA1 111131Z 17012G17KT 21/18 A3007 RMK A01 T02110177  RH  081%=      5-min Rain = 0
KTA1 111132Z 17013KT 21/18 A3007 RMK A01 T02110177  RH  081%=      5-min Rain = 0
KTA1 111133Z 17010KT 21/18 A3008 RMK A01 T02110177  RH  081%=      5-min Rain = 0
KTA1 111134Z 17012KT 21/18 A3008 RMK A01 T02120177  RH  081%=      5-min Rain = 0
KTA1 111135Z 16014G19KT 21/18 A3007 RMK A01 T02120177  RH  081%=      5-min Rain = 0
KTA1 111136Z 17015KT 21/18 A3007 RMK A01 T02120177  RH  081%=      5-min Rain = 0
KTA1 111137Z 16017G22KT 21/18 A3007 RMK A01 T02120177  RH  081%=      5-min Rain = 0
KTA1 111138Z 17016KT 21/18 A3007 RMK A01 T02120177  RH  081%=      5-min Rain = 0
KTA1 111139Z 17016KT 21/18 A3007 RMK A01 T02120177  RH  081%=      5-min Rain = 0
KTA1 111140Z 17014KT 21/18 A3007 RMK A01 T02120177  RH  081%=      5-min Rain = 0
KTA1 111141Z 17013KT 21/18 A3008 RMK A01 T02120178  RH  081%=      5-min Rain = 0
KTA1 111142Z 17014G20KT 21/18 A3008 RMK A01 T02120178  RH  081%=      5-min Rain = 0
KTA1 111143Z 17015G20KT 21/18 A3008 RMK A01 T02120178  RH  081%=      5-min Rain = 0
KTA1 111144Z 17014G20KT 21/18 A3008 RMK A01 T02120178  RH  081%=      5-min Rain = 0
KTA1 111145Z 17016KT 21/18 A3008 RMK A01 T02120179  RH  081%=      5-min Rain = 0
KTA1 111146Z 17017KT 21/18 A3008 RMK A01 T02120179  RH  081%=      5-min Rain = 0
KTA1 111147Z 18018G24KT 21/18 A3008 RMK A01 T02120179  RH  082%=      5-min Rain = 0
KTA1 111148Z 17016KT 21/18 A3008 RMK A01 T02120179  RH  082%=      5-min Rain = 0
KTA1 111149Z 18014KT 21/18 A3008 RMK A01 T02120180  RH  082%=      5-min Rain = 0
KTA1 111150Z 18016KT 21/18 A3008 RMK A01 T02120180  RH  082%=      5-min Rain = 0
KTA1 111151Z 18013KT 21/18 A3008 RMK A01 T02120180  RH  082%=      5-min Rain = 0
KTA1 111152Z 17013KT 21/18 A3008 RMK A01 T02120180  RH  082%=      5-min Rain = 0
KTA1 111153Z 17013KT 21/18 A3008 RMK A01 T02120179  RH  082%=      5-min Rain = 0
KTA1 111154Z 18012G17KT 21/18 A3008 RMK A01 T02120179  RH  082%=      5-min Rain = 0
KTA1 111155Z 17010KT 21/18 A3008 RMK A01 T02120180  RH  082%=      5-min Rain = 0
KTA1 111156Z 17014KT 21/18 A3008 RMK A01 T02120180  RH  082%=      5-min Rain = 0
KTA1 111157Z 17016KT 21/18 A3008 RMK A01 T02120179  RH  082%=      5-min Rain = 0
KTA1 111158Z 18013KT 21/18 A3008 RMK A01 T02120179  RH  082%=      5-min Rain = 0
KTA1 111159Z 17012KT 21/18 A3008 RMK A01 T02120179  RH  081%=      5-min Rain = 0
KTA1 111200Z 18012KT 21/18 A3008 RMK A01 T02120179  RH  081%=      5-min Rain = 0
KTA1 111201Z 17012G17KT 21/18 A3008 RMK A01 T02120179  RH  081%=      5-min Rain = 0
KTA1 111202Z 18011KT 21/18 A3008 RMK A01 T02130180  RH  081%=      5-min Rain = 0
KTA1 111203Z 17012KT 21/18 A3008 RMK A01 T02120179  RH  081%=      5-min Rain = 0
KTA1 111204Z 17012KT 21/18 A3008 RMK A01 T02120179  RH  081%=      5-min Rain = 0
KTA1 111205Z 17014KT 21/18 A3008 RMK A01 T02130180  RH  081%=      5-min Rain = 0
KTA1 111206Z 17013KT 21/18 A3008 RMK A01 T02120179  RH  081%=      5-min Rain = 0
KTA1 111207Z 17012KT 21/18 A3008 RMK A01 T02130180  RH  081%=      5-min Rain = 0
KTA1 111208Z 17014KT 21/18 A3008 RMK A01 T02120180  RH  081%=      5-min Rain = 0
KTA1 111209Z 17013KT 21/18 A3008 RMK A01 T02120179  RH  081%=      5-min Rain = 0
KTA1 111210Z 17012KT 21/18 A3008 RMK A01 T02130180  RH  081%=      5-min Rain = 0
KTA1 111211Z 17015KT 21/18 A3008 RMK A01 T02130180  RH  082%=      5-min Rain = 0
KTA1 111212Z 17012KT 21/18 A3008 RMK A01 T02120180  RH  082%=      5-min Rain = 0
KTA1 111213Z 17014KT 21/18 A3008 RMK A01 T02120180  RH  082%=      5-min Rain = 0
KTA1 111214Z 18012KT 21/18 A3008 RMK A01 T02120180  RH  082%=      5-min Rain = 0
KTA1 111215Z 17011KT 21/18 A3008 RMK A01 T02120180  RH  082%=      5-min Rain = 0
KTA1 111216Z 17011KT 21/18 A3008 RMK A01 T02120180  RH  082%=      5-min Rain = 0
KTA1 111217Z 18013KT 21/18 A3008 RMK A01 T02120180  RH  082%=      5-min Rain = 0
KTA1 111218Z 17013KT 21/18 A3008 RMK A01 T02120180  RH  082%=      5-min Rain = 0
KTA1 111219Z 17011KT 21/18 A3008 RMK A01 T02130180  RH  082%=      5-min Rain = 0
KTA1 111220Z 17012KT 21/18 A3008 RMK A01 T02120180  RH  082%=      5-min Rain = 0
KTA1 111221Z 17015KT 21/18 A3008 RMK A01 T02130180  RH  082%=      5-min Rain = 0
KTA1 111222Z 17014KT 21/18 A3008 RMK A01 T02130180  RH  082%=      5-min Rain = 0
KTA1 111223Z 17010KT 21/18 A3008 RMK A01 T02120180  RH  082%=      5-min Rain = 0
KTA1 111224Z 18012KT 21/18 A3008 RMK A01 T02130180  RH  082%=      5-min Rain = 0
KTA1 111225Z 17013KT 21/18 A3009 RMK A01 T02120180  RH  082%=      5-min Rain = 0
KTA1 111226Z 18012KT 21/18 A3009 RMK A01 T02120180  RH  082%=      5-min Rain = 0
KTA1 111227Z 17010KT 21/18 A3008 RMK A01 T02130180  RH  082%=      5-min Rain = 0
KTA1 111228Z 18014G21KT 21/18 A3009 RMK A01 T02120180  RH  082%=      5-min Rain = 0
KTA1 111229Z 18017KT 21/18 A3008 RMK A01 T02130181  RH  082%=      5-min Rain = 0
KTA1 111230Z 18015KT 21/18 A3009 RMK A01 T02130181  RH  082%=      5-min Rain = 0
KTA1 111231Z 17014G19KT 21/18 A3009 RMK A01 T02130181  RH  082%=      5-min Rain = 0
KTA1 111232Z 17016KT 21/18 A3009 RMK A01 T02130181  RH  082%=      5-min Rain = 0
KTA1 111233Z 17015KT 21/18 A3009 RMK A01 T02130181  RH  082%=      5-min Rain = 0
KTA1 111234Z 18014KT 21/18 A3009 RMK A01 T02130181  RH  082%=      5-min Rain = 0
KTA1 111235Z 18012KT 21/18 A3009 RMK A01 T02130181  RH  082%=      5-min Rain = 0
KTA1 111236Z 18012KT 21/18 A3009 RMK A01 T02130181  RH  082%=      5-min Rain = 0
KTA1 111237Z 17014KT 21/18 A3009 RMK A01 T02130182  RH  082%=      5-min Rain = 0
KTA1 111238Z 18012KT 21/18 A3009 RMK A01 T02130182  RH  082%=      5-min Rain = 0
KTA1 111239Z 18014G19KT 21/18 A3009 RMK A01 T02140182  RH  082%=      5-min Rain = 0
KTA1 111240Z 18017KT 21/18 A3009 RMK A01 T02140182  RH  082%=      5-min Rain = 0
KTA1 111241Z 17014KT 21/18 A3009 RMK A01 T02140182  RH  082%=      5-min Rain = 0
KTA1 111242Z 17010KT 21/18 A3009 RMK A01 T02140183  RH  082%=      5-min Rain = 0
KTA1 111243Z 18009KT 21/18 A3009 RMK A01 T02140183  RH  082%=      5-min Rain = 0
KTA1 111244Z 17012KT 21/18 A3009 RMK A01 T02140183  RH  082%=      5-min Rain = 0
KTA1 111245Z 17015KT 21/18 A3009 RMK A01 T02140183  RH  082%=      5-min Rain = 0
KTA1 111246Z 18014KT 22/18 A3009 RMK A01 T02150183  RH  082%=      5-min Rain = 0
KTA1 111247Z 17014KT 22/18 A3009 RMK A01 T02150183  RH  082%=      5-min Rain = 0
KTA1 111248Z 17013KT 22/18 A301 RMK A01 T02150183  RH  082%=      5-min Rain = 0
KTA1 111249Z 18012G17KT 22/18 A301 RMK A01 T02150183  RH  082%=      5-min Rain = 0
KTA1 111250Z 18013KT 22/18 A301 RMK A01 T02150184  RH  082%=      5-min Rain = 0
KTA1 111251Z 18012KT 22/18 A301 RMK A01 T02150183  RH  082%=      5-min Rain = 0
KTA1 111252Z 17010KT 22/18 A301 RMK A01 T02150183  RH  082%=      5-min Rain = 0
KTA1 111253Z 18012KT 22/18 A301 RMK A01 T02150184  RH  082%=      5-min Rain = 0
KTA1 111254Z 17013KT 22/18 A301 RMK A01 T02150184  RH  082%=      5-min Rain = 0
KTA1 111255Z 17016KT 22/18 A301 RMK A01 T02160184  RH  082%=      5-min Rain = 0
KTA1 111256Z 17013KT 22/18 A301 RMK A01 T02160184  RH  082%=      5-min Rain = 0
KTA1 111257Z 17013G21KT 22/18 A301 RMK A01 T02160184  RH  082%=      5-min Rain = 0
KTA1 111258Z 17013KT 22/18 A301 RMK A01 T02160184  RH  082%=      5-min Rain = 0
KTA1 111259Z 17015KT 22/18 A301 RMK A01 T02160184  RH  082%=      5-min Rain = 0
KTA1 111300Z 18013KT 22/18 A301 RMK A01 T02160184  RH  082%=      5-min Rain = 0
KTA1 111301Z 18012KT 22/18 A301 RMK A01 T02160184  RH  082%=      5-min Rain = 0
KTA1 111302Z 18011KT 22/18 A301 RMK A01 T02160184  RH  082%=      5-min Rain = 0
KTA1 111303Z 17010KT 22/18 A301 RMK A01 T02160184  RH  082%=      5-min Rain = 0
KTA1 111304Z 17011KT 22/18 A301 RMK A01 T02160184  RH  082%=      5-min Rain = 0
KTA1 111305Z 17011KT 22/18 A301 RMK A01 T02160184  RH  082%=      5-min Rain = 0
KTA1 111306Z 17013KT 22/19 A301 RMK A01 T02160185  RH  082%=      5-min Rain = 0
KTA1 111307Z 17014KT 22/19 A301 RMK A01 T02160185  RH  082%=      5-min Rain = 0
KTA1 111308Z 17013KT 22/18 A301 RMK A01 T02160184  RH  082%=      5-min Rain = 0
KTA1 111309Z 17014KT 22/19 A301 RMK A01 T02160185  RH  082%=      5-min Rain = 0
KTA1 111310Z 17015KT 22/19 A301 RMK A01 T02170185  RH  082%=      5-min Rain = 0
KTA1 111311Z 17013KT 22/19 A301 RMK A01 T02170185  RH  082%=      5-min Rain = 0
KTA1 111312Z 17011KT 22/19 A301 RMK A01 T02170185  RH  082%=      5-min Rain = 0
KTA1 111313Z 17011KT 22/19 A301 RMK A01 T02170185  RH  082%=      5-min Rain = 0
KTA1 111314Z 17014KT 22/19 A3011 RMK A01 T02170185  RH  082%=      5-min Rain = 0
KTA1 111315Z 17012KT 22/19 A3011 RMK A01 T02170185  RH  082%=      5-min Rain = 0
KTA1 111316Z 17011KT 22/19 A3011 RMK A01 T02170185  RH  082%=      5-min Rain = 0
KTA1 111317Z 17010KT 22/19 A3011 RMK A01 T02170185  RH  082%=      5-min Rain = 0
KTA1 111318Z 17010KT 22/19 A301 RMK A01 T02170186  RH  082%=      5-min Rain = 0
KTA1 111319Z 17010KT 22/19 A301 RMK A01 T02170186  RH  082%=      5-min Rain = 0
KTA1 111320Z 16011KT 22/19 A301 RMK A01 T02170185  RH  082%=      5-min Rain = 0
KTA1 111321Z 17011KT 22/19 A301 RMK A01 T02170185  RH  082%=      5-min Rain = 0
KTA1 111322Z 17013KT 22/19 A301 RMK A01 T02180186  RH  082%=      5-min Rain = 0
KTA1 111323Z 17011KT 22/19 A3011 RMK A01 T02180186  RH  082%=      5-min Rain = 0
KTA1 111324Z 17011KT 22/19 A3011 RMK A01 T02170186  RH  082%=      5-min Rain = 0
KTA1 111325Z 16010KT 22/19 A3011 RMK A01 T02180186  RH  082%=      5-min Rain = 0
KTA1 111326Z 17012KT 22/19 A3011 RMK A01 T02180186  RH  082%=      5-min Rain = 0
KTA1 111327Z 17012KT 22/19 A3011 RMK A01 T02180186  RH  082%=      5-min Rain = 0
KTA1 111328Z 16013KT 22/19 A3011 RMK A01 T02180186  RH  082%=      5-min Rain = 0
KTA1 111329Z 17013KT 22/19 A3011 RMK A01 T02180186  RH  082%=      5-min Rain = 0
KTA1 111330Z 17010KT 22/19 A3011 RMK A01 T02190186  RH  082%=      5-min Rain = 0
KTA1 111331Z 17010KT 22/19 A3011 RMK A01 T02190186  RH  082%=      5-min Rain = 0
KTA1 111332Z 16012KT 22/19 A3011 RMK A01 T02190187  RH  082%=      5-min Rain = 0
KTA1 111333Z 17013KT 22/19 A3011 RMK A01 T02190186  RH  082%=      5-min Rain = 0
KTA1 111334Z 17012KT 22/19 A3011 RMK A01 T02190187  RH  082%=      5-min Rain = 0
KTA1 111335Z 16013G18KT 22/19 A3011 RMK A01 T02190187  RH  082%=      5-min Rain = 0
KTA1 111336Z 16013KT 22/19 A3011 RMK A01 T02190186  RH  082%=      5-min Rain = 0
KTA1 111337Z 16013KT 22/19 A3011 RMK A01 T02190186  RH  082%=      5-min Rain = 0
KTA1 111338Z 16012KT 22/19 A3011 RMK A01 T02190187  RH  082%=      5-min Rain = 0
KTA1 111339Z 17013KT 22/19 A301 RMK A01 T02200187  RH  082%=      5-min Rain = 0
KTA1 111340Z 17013KT 22/19 A3011 RMK A01 T02200187  RH  082%=      5-min Rain = 0
KTA1 111341Z 17015KT 22/19 A3011 RMK A01 T02200187  RH  082%=      5-min Rain = 0
KTA1 111342Z 16013G19KT 22/19 A3011 RMK A01 T02200187  RH  082%=      5-min Rain = 0
KTA1 111343Z 16016KT 22/19 A3011 RMK A01 T02200187  RH  082%=      5-min Rain = 0
KTA1 111344Z 17013KT 22/19 A3011 RMK A01 T02200187  RH  082%=      5-min Rain = 0
KTA1 111345Z 16011KT 22/19 A3011 RMK A01 T02200187  RH  082%=      5-min Rain = 0
KTA1 111346Z 16011KT 22/19 A3011 RMK A01 T02200187  RH  082%=      5-min Rain = 0
KTA1 111347Z 16013KT 22/19 A3011 RMK A01 T02210188  RH  082%=      5-min Rain = 0
KTA1 111348Z 16013KT 22/19 A3011 RMK A01 T02200188  RH  082%=      5-min Rain = 0
KTA1 111349Z 16013KT 22/19 A3011 RMK A01 T02200187  RH  082%=      5-min Rain = 0
KTA1 111350Z 16013KT 22/19 A3011 RMK A01 T02200188  RH  082%=      5-min Rain = 0
KTA1 111351Z 16012KT 22/19 A3011 RMK A01 T02200188  RH  082%=      5-min Rain = 0
KTA1 111352Z 15012KT 22/19 A3011 RMK A01 T02200188  RH  082%=      5-min Rain = 0
KTA1 111353Z 16011KT 22/19 A3011 RMK A01 T02210188  RH  082%=      5-min Rain = 0
KTA1 111354Z 16012G17KT 22/19 A3011 RMK A01 T02210188  RH  082%=      5-min Rain = 0
KTA1 111355Z 16015KT 22/19 A3011 RMK A01 T02210188  RH  081%=      5-min Rain = 0
KTA1 111356Z 17015KT 22/19 A3011 RMK A01 T02210188  RH  081%=      5-min Rain = 0
KTA1 111357Z 16013KT 22/19 A3011 RMK A01 T02210188  RH  082%=      5-min Rain = 0
KTA1 111358Z 16011KT 22/19 A3011 RMK A01 T02210188  RH  082%=      5-min Rain = 0
KTA1 111359Z 17011G17KT 22/19 A3011 RMK A01 T02210188  RH  082%=      5-min Rain = 0
KTA1 111400Z 17015KT 22/19 A3011 RMK A01 T02210188  RH  081%=      5-min Rain = 0
KTA1 111401Z 17015KT 22/19 A3011 RMK A01 T02210188  RH  081%=      5-min Rain = 0
KTA1 111402Z 17014KT 22/19 A3011 RMK A01 T02210188  RH  081%=      5-min Rain = 0
KTA1 111403Z 16011KT 22/19 A3011 RMK A01 T02210188  RH  082%=      5-min Rain = 0
KTA1 111404Z 16012KT 22/19 A3011 RMK A01 T02220189  RH  082%=      5-min Rain = 0
KTA1 111405Z 18013KT 22/19 A3011 RMK A01 T02220189  RH  081%=      5-min Rain = 0
KTA1 111406Z 17013KT 22/19 A3011 RMK A01 T02220189  RH  081%=      5-min Rain = 0
KTA1 111407Z 17009KT 22/19 A3011 RMK A01 T02220189  RH  081%=      5-min Rain = 0
KTA1 111408Z 17012KT 22/19 A3011 RMK A01 T02220189  RH  081%=      5-min Rain = 0
KTA1 111409Z 17011KT 22/19 A3011 RMK A01 T02230189  RH  081%=      5-min Rain = 0
KTA1 111410Z 17012KT 22/19 A3011 RMK A01 T02230189  RH  081%=      5-min Rain = 0
KTA1 111411Z 17014KT 22/19 A3011 RMK A01 T02230189  RH  081%=      5-min Rain = 0
KTA1 111412Z 17015KT 22/19 A3011 RMK A01 T02230189  RH  081%=      5-min Rain = 0
KTA1 111413Z 17014KT 22/19 A3011 RMK A01 T02230189  RH  081%=      5-min Rain = 0
KTA1 111414Z 17013KT 22/19 A3011 RMK A01 T02230189  RH  081%=      5-min Rain = 0
KTA1 111415Z 17014KT 22/19 A3011 RMK A01 T02230189  RH  081%=      5-min Rain = 0
KTA1 111416Z 17014KT 22/19 A3011 RMK A01 T02230189  RH  081%=      5-min Rain = 0
KTA1 111417Z 17012KT 22/19 A3011 RMK A01 T02230189  RH  081%=      5-min Rain = 0
KTA1 111418Z 16011KT 22/19 A3011 RMK A01 T02230189  RH  081%=      5-min Rain = 0
KTA1 111419Z 17010KT 22/19 A3011 RMK A01 T02240190  RH  081%=      5-min Rain = 0
KTA1 111420Z 17011KT 23/19 A3011 RMK A01 T02250190  RH  081%=      5-min Rain = 0
KTA1 111421Z 17015KT 23/19 A3011 RMK A01 T02250190  RH  080%=      5-min Rain = 0
KTA1 111422Z 17013KT 23/19 A3011 RMK A01 T02250189  RH  080%=      5-min Rain = 0
KTA1 111423Z 17015KT 23/19 A3011 RMK A01 T02250189  RH  080%=      5-min Rain = 0
KTA1 111424Z 18013KT 23/19 A3011 RMK A01 T02250189  RH  080%=      5-min Rain = 0
KTA1 111425Z 18012KT 23/19 A3011 RMK A01 T02250189  RH  080%=      5-min Rain = 0
KTA1 111426Z 18013KT 23/19 A3012 RMK A01 T02260189  RH  080%=      5-min Rain = 0
KTA1 111427Z 17013KT 23/19 A3012 RMK A01 T02260189  RH  080%=      5-min Rain = 0
KTA1 111428Z 17013KT 23/19 A3012 RMK A01 T02260189  RH  080%=      5-min Rain = 0
KTA1 111429Z 17014KT 23/19 A3011 RMK A01 T02260190  RH  080%=      5-min Rain = 0
KTA1 111430Z 17014KT 23/19 A3011 RMK A01 T02270190  RH  079%=      5-min Rain = 0
KTA1 111431Z 17013KT 23/19 A3011 RMK A01 T02270190  RH  079%=      5-min Rain = 0
KTA1 111432Z 17013KT 23/19 A3011 RMK A01 T02270190  RH  079%=      5-min Rain = 0
KTA1 111433Z 17013KT 23/19 A3011 RMK A01 T02280190  RH  079%=      5-min Rain = 0
KTA1 111434Z 16015KT 23/19 A3011 RMK A01 T02280190  RH  079%=      5-min Rain = 0
KTA1 111435Z 17014KT 23/19 A3011 RMK A01 T02280190  RH  079%=      5-min Rain = 0
KTA1 111436Z 17016KT 23/19 A3011 RMK A01 T02280190  RH  079%=      5-min Rain = 0
KTA1 111437Z 17014KT 23/19 A3012 RMK A01 T02280190  RH  079%=      5-min Rain = 0
KTA1 111438Z 17013KT 23/19 A3011 RMK A01 T02290190  RH  079%=      5-min Rain = 0
KTA1 111439Z 17014KT 23/19 A3011 RMK A01 T02300190  RH  078%=      5-min Rain = 0
KTA1 111440Z 17013KT 23/19 A3011 RMK A01 T02300190  RH  078%=      5-min Rain = 0
KTA1 111441Z 17013KT 23/19 A3011 RMK A01 T02300190  RH  078%=      5-min Rain = 0
KTA1 111442Z 17015KT 23/19 A3011 RMK A01 T02310190  RH  078%=      5-min Rain = 0
KTA1 111443Z 17016KT 23/19 A3011 RMK A01 T02310190  RH  077%=      5-min Rain = 0
KTA1 111444Z 17016KT 23/19 A3011 RMK A01 T02310190  RH  077%=      5-min Rain = 0
KTA1 111445Z 17011G16KT 23/19 A3011 RMK A01 T02310190  RH  077%=      5-min Rain = 0
KTA1 111446Z 17015KT 23/19 A3011 RMK A01 T02320190  RH  077%=      5-min Rain = 0
KTA1 111447Z 17014KT 23/19 A3011 RMK A01 T02330190  RH  077%=      5-min Rain = 0
KTA1 111448Z 17014KT 23/19 A3012 RMK A01 T02330191  RH  077%=      5-min Rain = 0
KTA1 111449Z 17014KT 23/19 A3012 RMK A01 T02330190  RH  077%=      5-min Rain = 0
KTA1 111450Z 17014KT 23/19 A3012 RMK A01 T02330191  RH  077%=      5-min Rain = 0
KTA1 111451Z 16011KT 23/19 A3012 RMK A01 T02330191  RH  077%=      5-min Rain = 0
KTA1 111452Z 16013G18KT 23/19 A3011 RMK A01 T02340190  RH  077%=      5-min Rain = 0
KTA1 111453Z 16013KT 24/19 A3011 RMK A01 T02350191  RH  076%=      5-min Rain = 0
KTA1 111454Z 17014KT 24/19 A3011 RMK A01 T02350190  RH  076%=      5-min Rain = 0
KTA1 111455Z 17013KT 24/19 A3011 RMK A01 T02360190  RH  076%=      5-min Rain = 0
KTA1 111456Z 18011KT 24/19 A3011 RMK A01 T02360191  RH  076%=      5-min Rain = 0
KTA1 111457Z 18012KT 24/19 A3011 RMK A01 T02370190  RH  075%=      5-min Rain = 0
KTA1 111458Z 18015KT 24/19 A3011 RMK A01 T02370190  RH  075%=      5-min Rain = 0
KTA1 111459Z 17012KT 24/19 A3012 RMK A01 T02360191  RH  076%=      5-min Rain = 0
KTA1 111500Z 17015KT 24/19 A3011 RMK A01 T02370190  RH  075%=      5-min Rain = 0
KTA1 111501Z 18013KT 24/19 A3011 RMK A01 T02380190  RH  075%=      5-min Rain = 0
KTA1 111502Z 18015KT 24/19 A3011 RMK A01 T02380190  RH  074%=      5-min Rain = 0
KTA1 111503Z 17013KT 24/19 A3011 RMK A01 T02390190  RH  074%=      5-min Rain = 0
KTA1 111504Z 17013KT 24/19 A3011 RMK A01 T02380190  RH  074%=      5-min Rain = 0
KTA1 111505Z 17014KT 24/19 A3012 RMK A01 T02370190  RH  075%=      5-min Rain = 0
KTA1 111506Z 17014KT 24/19 A3012 RMK A01 T02370191  RH  075%=      5-min Rain = 0
KTA1 111507Z 17014KT 24/19 A3012 RMK A01 T02370189  RH  075%=      5-min Rain = 0
KTA1 111508Z 16014KT 24/19 A3012 RMK A01 T02370190  RH  075%=      5-min Rain = 0
KTA1 111509Z 17014KT 24/19 A3012 RMK A01 T02380190  RH  074%=      5-min Rain = 0
KTA1 111510Z 17015KT 24/19 A3012 RMK A01 T02390190  RH  074%=      5-min Rain = 0
KTA1 111511Z 17014KT 24/19 A3012 RMK A01 T02390190  RH  074%=      5-min Rain = 0
KTA1 111512Z 17012KT 24/19 A3012 RMK A01 T02380190  RH  074%=      5-min Rain = 0
KTA1 111513Z 18011KT 24/19 A3012 RMK A01 T02390190  RH  074%=      5-min Rain = 0
KTA1 111514Z 17012G17KT 24/19 A3012 RMK A01 T02420191  RH  073%=      5-min Rain = 0
KTA1 111515Z 16012G17KT 25/19 A3012 RMK A01 T02450192  RH  072%=      5-min Rain = 0
KTA1 111516Z 16013G18KT 25/19 A3012 RMK A01 T02470192  RH  072%=      5-min Rain = 0
KTA1 111517Z 16014KT 25/19 A3012 RMK A01 T02470192  RH  071%=      5-min Rain = 0
KTA1 111518Z 15015KT 25/19 A3012 RMK A01 T02470192  RH  072%=      5-min Rain = 0
KTA1 111519Z 16013KT 25/19 A3012 RMK A01 T02460192  RH  072%=      5-min Rain = 0
KTA1 111520Z 16011KT 25/19 A3012 RMK A01 T02460192  RH  072%=      5-min Rain = 0
KTA1 111521Z 17014KT 25/19 A3012 RMK A01 T02470193  RH  072%=      5-min Rain = 0
KTA1 111522Z 16010KT 25/19 A3012 RMK A01 T02470192  RH  072%=      5-min Rain = 0
KTA1 111523Z 17013KT 25/19 A3012 RMK A01 T02470192  RH  072%=      5-min Rain = 0
KTA1 111524Z 16011KT 25/19 A3012 RMK A01 T02470192  RH  072%=      5-min Rain = 0
KTA1 111525Z 16011KT 25/19 A3012 RMK A01 T02460192  RH  072%=      5-min Rain = 0
KTA1 111526Z 18014KT 25/19 A3012 RMK A01 T02460192  RH  072%=      5-min Rain = 0
KTA1 111527Z 17011KT 25/19 A3012 RMK A01 T02460191  RH  072%=      5-min Rain = 0
KTA1 111528Z 18011KT 25/19 A3012 RMK A01 T02480193  RH  071%=      5-min Rain = 0
KTA1 111529Z 17013KT 25/19 A3012 RMK A01 T02480192  RH  071%=      5-min Rain = 0
KTA1 111530Z 17013KT 25/19 A3012 RMK A01 T02480192  RH  071%=      5-min Rain = 0
KTA1 111531Z 18013KT 25/19 A3012 RMK A01 T02460191  RH  072%=      5-min Rain = 0
KTA1 111532Z 18010KT 24/19 A3012 RMK A01 T02440191  RH  072%=      5-min Rain = 0
KTA1 111533Z 17009KT 24/19 A3012 RMK A01 T02430191  RH  073%=      5-min Rain = 0
KTA1 111534Z 17014KT 24/19 A3012 RMK A01 T02440192  RH  072%=      5-min Rain = 0
KTA1 111535Z 17013KT 25/19 A3012 RMK A01 T02450192  RH  072%=      5-min Rain = 0
KTA1 111536Z 17012KT 25/19 A3012 RMK A01 T02460192  RH  072%=      5-min Rain = 0
KTA1 111537Z 16015KT 25/19 A3012 RMK A01 T02470192  RH  071%=      5-min Rain = 0
KTA1 111538Z 16014KT 25/19 A3012 RMK A01 T02480192  RH  071%=      5-min Rain = 0
KTA1 111539Z 16012KT 25/19 A3012 RMK A01 T02480192  RH  071%=      5-min Rain = 0
KTA1 111540Z 17011KT 25/19 A3012 RMK A01 T02480193  RH  071%=      5-min Rain = 0
KTA1 111541Z 17012KT 25/19 A3012 RMK A01 T02480192  RH  071%=      5-min Rain = 0
KTA1 111542Z 17013KT 25/19 A3012 RMK A01 T02480192  RH  071%=      5-min Rain = 0
KTA1 111543Z 17012KT 25/19 A3012 RMK A01 T02480192  RH  071%=      5-min Rain = 0
KTA1 111544Z 17013KT 25/19 A3012 RMK A01 T02470192  RH  071%=      5-min Rain = 0
KTA1 111545Z 17011KT 25/19 A3012 RMK A01 T02480192  RH  071%=      5-min Rain = 0
KTA1 111546Z 17013KT 25/19 A3012 RMK A01 T02480192  RH  071%=      5-min Rain = 0
KTA1 111547Z 16010KT 25/19 A3012 RMK A01 T02480192  RH  071%=      5-min Rain = 0
KTA1 111548Z 16012KT 25/19 A3012 RMK A01 T02480192  RH  071%=      5-min Rain = 0
KTA1 111549Z 17011KT 25/19 A3012 RMK A01 T02490193  RH  071%=      5-min Rain = 0
KTA1 111550Z 16012KT 25/19 A3012 RMK A01 T02530194  RH  070%=      5-min Rain = 0
KTA1 111551Z 16014G19KT 26/19 A3012 RMK A01 T02560194  RH  069%=      5-min Rain = 0
KTA1 111552Z 17013KT 26/19 A3012 RMK A01 T02580194  RH  068%=      5-min Rain = 0
KTA1 111553Z 15012G17KT 26/19 A3012 RMK A01 T02590194  RH  067%=      5-min Rain = 0
KTA1 111554Z 15014KT 26/20 A3012 RMK A01 T02600195  RH  067%=      5-min Rain = 0
KTA1 111555Z 15014KT 26/19 A3012 RMK A01 T02610194  RH  067%=      5-min Rain = 0
KTA1 111556Z 15015KT 26/19 A3012 RMK A01 T02590193  RH  067%=      5-min Rain = 0
KTA1 111557Z 17011KT 26/19 A3012 RMK A01 T02570193  RH  068%=      5-min Rain = 0
KTA1 111558Z 15015KT 26/19 A3012 RMK A01 T02570194  RH  068%=      5-min Rain = 0
KTA1 111559Z 15017KT 26/19 A3012 RMK A01 T02580193  RH  067%=      5-min Rain = 0
KTA1 111600Z 17014KT 26/19 A3012 RMK A01 T02590193  RH  067%=      5-min Rain = 0
KTA1 111601Z 17013KT 26/19 A3012 RMK A01 T02600193  RH  067%=      5-min Rain = 0
KTA1 111602Z 16013G18KT 26/19 A3012 RMK A01 T02610193  RH  066%=      5-min Rain = 0
KTA1 111603Z 16013KT 26/19 A3011 RMK A01 T02610194  RH  066%=      5-min Rain = 0
KTA1 111604Z 16015KT 26/19 A3011 RMK A01 T02620193  RH  066%=      5-min Rain = 0
KTA1 111605Z 15016KT 26/19 A3012 RMK A01 T02620193  RH  066%=      5-min Rain = 0
KTA1 111606Z 15012KT 26/19 A3011 RMK A01 T02620193  RH  066%=      5-min Rain = 0
KTA1 111607Z 17011KT 26/19 A3011 RMK A01 T02610193  RH  066%=      5-min Rain = 0
KTA1 111608Z 17011G17KT 26/19 A3011 RMK A01 T02610194  RH  066%=      5-min Rain = 0
KTA1 111609Z 15014G19KT 26/19 A3011 RMK A01 T02620194  RH  066%=      5-min Rain = 0
KTA1 111610Z 15015KT 26/19 A3011 RMK A01 T02620192  RH  065%=      5-min Rain = 0
KTA1 111611Z 15012KT 26/19 A3011 RMK A01 T02620194  RH  066%=      5-min Rain = 0
KTA1 111612Z 17014KT 26/19 A3011 RMK A01 T02640194  RH  066%=      5-min Rain = 0
KTA1 111613Z 15014KT 27/19 A3011 RMK A01 T02660193  RH  064%=      5-min Rain = 0
KTA1 111614Z 15016KT 27/19 A3011 RMK A01 T02670193  RH  064%=      5-min Rain = 0
KTA1 111615Z 15014KT 27/19 A3011 RMK A01 T02670193  RH  064%=      5-min Rain = 0
KTA1 111616Z 15016KT 27/19 A3011 RMK A01 T02660194  RH  065%=      5-min Rain = 0
KTA1 111617Z 15016KT 27/19 A3011 RMK A01 T02660194  RH  065%=      5-min Rain = 0
KTA1 111618Z 15012KT 27/19 A3012 RMK A01 T02660194  RH  065%=      5-min Rain = 0
KTA1 111619Z 15012G17KT 27/20 A3012 RMK A01 T02670195  RH  065%=      5-min Rain = 0
KTA1 111620Z 16014KT 27/19 A3012 RMK A01 T02680194  RH  064%=      5-min Rain = 0
KTA1 111621Z 16016KT 27/19 A3012 RMK A01 T02660193  RH  064%=      5-min Rain = 0
KTA1 111622Z 15014KT 27/19 A3012 RMK A01 T02650193  RH  064%=      5-min Rain = 0
KTA1 111623Z 16013KT 27/19 A3012 RMK A01 T02650193  RH  064%=      5-min Rain = 0
KTA1 111624Z 16012G21KT 27/19 A3012 RMK A01 T02650193  RH  065%=      5-min Rain = 0
KTA1 111625Z 16016KT 27/19 A3012 RMK A01 T02650193  RH  064%=      5-min Rain = 0
KTA1 111626Z 15012G17KT 26/19 A3012 RMK A01 T02630193  RH  065%=      5-min Rain = 0
KTA1 111627Z 17014KT 26/19 A3012 RMK A01 T02630193  RH  065%=      5-min Rain = 0
KTA1 111628Z 17012KT 26/19 A3012 RMK A01 T02630193  RH  065%=      5-min Rain = 0
KTA1 111629Z 15014G20KT 27/19 A3012 RMK A01 T02650194  RH  065%=      5-min Rain = 0
KTA1 111630Z 16016KT 27/19 A3012 RMK A01 T02660193  RH  064%=      5-min Rain = 0
KTA1 111631Z 16014KT 27/19 A3012 RMK A01 T02650193  RH  065%=      5-min Rain = 0
KTA1 111632Z 16015KT 27/19 A3012 RMK A01 T02650194  RH  065%=      5-min Rain = 0
KTA1 111633Z 17012KT 27/19 A3012 RMK A01 T02650193  RH  065%=      5-min Rain = 0
KTA1 111634Z 18013KT 27/19 A3012 RMK A01 T02650193  RH  065%=      5-min Rain = 0
KTA1 111635Z 17014KT 26/19 A3012 RMK A01 T02640193  RH  065%=      5-min Rain = 0
KTA1 111636Z 17013KT 27/19 A3012 RMK A01 T02660194  RH  065%=      5-min Rain = 0
KTA1 111637Z 16011KT 27/19 A3011 RMK A01 T02690194  RH  064%=      5-min Rain = 0
KTA1 111638Z 17013KT 27/20 A3012 RMK A01 T02720195  RH  063%=      5-min Rain = 0
KTA1 111639Z 17014KT 27/19 A3011 RMK A01 T02740194  RH  062%=      5-min Rain = 0
KTA1 111640Z 17013KT 27/20 A3011 RMK A01 T02730195  RH  062%=      5-min Rain = 0
KTA1 111641Z 15011KT 27/20 A3011 RMK A01 T02740196  RH  062%=      5-min Rain = 0
KTA1 111642Z 16013KT 28/20 A3011 RMK A01 T02770196  RH  061%=      5-min Rain = 0
KTA1 111643Z 15015G21KT 28/20 A3011 RMK A01 T02770196  RH  061%=      5-min Rain = 0
KTA1 111644Z 15013KT 28/20 A3011 RMK A01 T02770196  RH  061%=      5-min Rain = 0
KTA1 111645Z 17014KT 28/20 A3011 RMK A01 T02800195  RH  060%=      5-min Rain = 0
KTA1 111646Z 17015KT 28/19 A3011 RMK A01 T02780194  RH  060%=      5-min Rain = 0
KTA1 111647Z 18013KT 28/19 A3011 RMK A01 T02760194  RH  061%=      5-min Rain = 0
KTA1 111648Z 18013KT 27/19 A3011 RMK A01 T02740193  RH  061%=      5-min Rain = 0
KTA1 111649Z 17013KT 27/19 A3011 RMK A01 T02730193  RH  062%=      5-min Rain = 0
KTA1 111650Z 16015KT 27/19 A3011 RMK A01 T02730194  RH  062%=      5-min Rain = 0
KTA1 111651Z 15013KT 27/19 A3011 RMK A01 T02740194  RH  062%=      5-min Rain = 0
KTA1 111652Z 16011KT 27/19 A3011 RMK A01 T02710194  RH  062%=      5-min Rain = 0
KTA1 111653Z 16013KT 27/19 A3011 RMK A01 T02700193  RH  063%=      5-min Rain = 0
KTA1 111654Z 17013KT 27/19 A3011 RMK A01 T02720193  RH  062%=      5-min Rain = 0
KTA1 111655Z 17011KT 27/19 A3011 RMK A01 T02740193  RH  061%=      5-min Rain = 0
KTA1 111656Z 16012KT 28/19 A3011 RMK A01 T02750193  RH  061%=      5-min Rain = 0
KTA1 111657Z 16014KT 28/19 A3011 RMK A01 T02760194  RH  061%=      5-min Rain = 0
KTA1 111658Z 16013KT 28/19 A3011 RMK A01 T02770194  RH  061%=      5-min Rain = 0
KTA1 111659Z 16012KT 28/20 A3011 RMK A01 T02790195  RH  060%=      5-min Rain = 0
KTA1 111700Z 17011KT 28/19 A3011 RMK A01 T02800194  RH  059%=      5-min Rain = 0
KTA1 111701Z 16012KT 28/20 A3011 RMK A01 T02810195  RH  060%=      5-min Rain = 0
KTA1 111702Z 17012KT 28/20 A3011 RMK A01 T02830195  RH  059%=      5-min Rain = 0
KTA1 111703Z 18013KT 28/19 A3011 RMK A01 T02830194  RH  059%=      5-min Rain = 0
KTA1 111704Z 17011KT 28/20 A3011 RMK A01 T02810195  RH  059%=      5-min Rain = 0
KTA1 111705Z 17012KT 28/20 A3011 RMK A01 T02820195  RH  059%=      5-min Rain = 0
KTA1 111706Z 16013KT 29/20 A3011 RMK A01 T02860195  RH  058%=      5-min Rain = 0
KTA1 111707Z 18013KT 29/20 A3011 RMK A01 T02860195  RH  058%=      5-min Rain = 0
KTA1 111708Z 18012KT 29/19 A3011 RMK A01 T02850194  RH  058%=      5-min Rain = 0
KTA1 111709Z 18008KT 28/19 A3011 RMK A01 T02790193  RH  060%=      5-min Rain = 0
KTA1 111710Z 19010KT 28/19 A3011 RMK A01 T02760194  RH  061%=      5-min Rain = 0
KTA1 111711Z 19009G14KT 28/19 A3011 RMK A01 T02780194  RH  060%=      5-min Rain = 0
KTA1 111712Z 17013KT 28/19 A3011 RMK A01 T02800194  RH  060%=      5-min Rain = 0
KTA1 111713Z 16013KT 28/19 A3011 RMK A01 T02840193  RH  058%=      5-min Rain = 0
KTA1 111714Z 17013KT 29/19 A3011 RMK A01 T02850194  RH  058%=      5-min Rain = 0
KTA1 111715Z 18011KT 28/19 A3011 RMK A01 T02840194  RH  058%=      5-min Rain = 0
KTA1 111716Z 15011KT 28/19 A3011 RMK A01 T02810194  RH  059%=      5-min Rain = 0
KTA1 111717Z 16010KT 28/19 A3011 RMK A01 T02800193  RH  059%=      5-min Rain = 0
KTA1 111718Z 16009KT 28/19 A3011 RMK A01 T02800194  RH  059%=      5-min Rain = 0
KTA1 111719Z 16012KT 28/19 A3011 RMK A01 T02820194  RH  059%=      5-min Rain = 0
KTA1 111720Z 15010KT 28/19 A3011 RMK A01 T02810193  RH  059%=      5-min Rain = 0
KTA1 111721Z 16012G17KT 28/19 A3011 RMK A01 T02800194  RH  059%=      5-min Rain = 0
KTA1 111722Z 17013KT 28/19 A3011 RMK A01 T02830194  RH  059%=      5-min Rain = 0
KTA1 111723Z 16011KT 29/20 A3011 RMK A01 T02870196  RH  058%=      5-min Rain = 0
KTA1 111724Z 16010KT 29/20 A3011 RMK A01 T02890195  RH  057%=      5-min Rain = 0
KTA1 111725Z 16009G14KT 29/20 A3011 RMK A01 T02890195  RH  057%=      5-min Rain = 0
KTA1 111726Z 15011KT 29/20 A3011 RMK A01 T02890196  RH  057%=      5-min Rain = 0
KTA1 111727Z 16013KT 29/19 A3011 RMK A01 T02890194  RH  056%=      5-min Rain = 0
KTA1 111728Z 15011KT 29/19 A3011 RMK A01 T02880194  RH  057%=      5-min Rain = 0
KTA1 111729Z 16011KT 29/19 A3011 RMK A01 T02870194  RH  057%=      5-min Rain = 0
KTA1 111730Z 15016G21KT 29/19 A3011 RMK A01 T02880193  RH  057%=      5-min Rain = 0
KTA1 111731Z 17013KT 29/19 A3011 RMK A01 T02860193  RH  057%=      5-min Rain = 0
KTA1 111732Z 16014KT 28/19 A3011 RMK A01 T02840193  RH  058%=      5-min Rain = 0
KTA1 111733Z 16014KT 29/19 A301 RMK A01 T02850192  RH  057%=      5-min Rain = 0
KTA1 111734Z 17014KT 29/19 A3011 RMK A01 T02850192  RH  057%=      5-min Rain = 0
KTA1 111735Z 17013KT 29/19 A3011 RMK A01 T02860192  RH  057%=      5-min Rain = 0
KTA1 111736Z 16010KT 29/19 A301 RMK A01 T02880193  RH  057%=      5-min Rain = 0
KTA1 111737Z 17012KT 29/19 A301 RMK A01 T02890194  RH  056%=      5-min Rain = 0
KTA1 111738Z 16009KT 29/19 A301 RMK A01 T02900194  RH  056%=      5-min Rain = 0
KTA1 111739Z 16014KT 29/19 A301 RMK A01 T02900194  RH  056%=      5-min Rain = 0
KTA1 111740Z 15011KT 29/20 A301 RMK A01 T02890195  RH  057%=      5-min Rain = 0
KTA1 111741Z 15010KT 29/19 A301 RMK A01 T02900194  RH  056%=      5-min Rain = 0
KTA1 111742Z 15009KT 29/19 A301 RMK A01 T02900194  RH  056%=      5-min Rain = 0
KTA1 111743Z 16010G15KT 29/19 A301 RMK A01 T02880193  RH  056%=      5-min Rain = 0
KTA1 111744Z 19013KT 29/19 A301 RMK A01 T02890194  RH  056%=      5-min Rain = 0
KTA1 111745Z 17011KT 29/19 A301 RMK A01 T02910194  RH  056%=      5-min Rain = 0
KTA1 111746Z 15011KT 29/19 A301 RMK A01 T02910194  RH  056%=      5-min Rain = 0
KTA1 111747Z 15011KT 29/19 A301 RMK A01 T02890193  RH  056%=      5-min Rain = 0
KTA1 111748Z 16012G17KT 29/19 A301 RMK A01 T02870193  RH  057%=      5-min Rain = 0
KTA1 111749Z 17014KT 29/19 A301 RMK A01 T02860193  RH  057%=      5-min Rain = 0
KTA1 111750Z 17014KT 29/19 A301 RMK A01 T02860193  RH  057%=      5-min Rain = 0
KTA1 111751Z 16011KT 29/19 A301 RMK A01 T02860193  RH  057%=      5-min Rain = 0
KTA1 111752Z 16008KT 29/19 A301 RMK A01 T02850193  RH  057%=      5-min Rain = 0
KTA1 111753Z 17009KT 29/19 A301 RMK A01 T02860193  RH  057%=      5-min Rain = 0
KTA1 111754Z 16010KT 29/20 A301 RMK A01 T02880195  RH  057%=      5-min Rain = 0
KTA1 111755Z 17008KT 29/19 A301 RMK A01 T02920194  RH  056%=      5-min Rain = 0
KTA1 111756Z 19009KT 29/19 A301 RMK A01 T02930193  RH  055%=      5-min Rain = 0
KTA1 111757Z 17011KT 29/19 A301 RMK A01 T02920192  RH  055%=      5-min Rain = 0
KTA1 111758Z 18008KT 29/19 A301 RMK A01 T02880193  RH  056%=      5-min Rain = 0
KTA1 111759Z 17010KT 29/19 A301 RMK A01 T02870193  RH  057%=      5-min Rain = 0
KTA1 111800Z 16011KT 29/19 A301 RMK A01 T02890194  RH  056%=      5-min Rain = 0
KTA1 111801Z 17012KT 29/19 A301 RMK A01 T02900193  RH  056%=      5-min Rain = 0
KTA1 111802Z 16014KT 29/19 A301 RMK A01 T02890193  RH  056%=      5-min Rain = 0
KTA1 111803Z 14011KT 29/19 A301 RMK A01 T02870193  RH  057%=      5-min Rain = 0
KTA1 111804Z 15013KT 29/19 A301 RMK A01 T02860194  RH  057%=      5-min Rain = 0
KTA1 111805Z 18011KT 29/19 A301 RMK A01 T02870192  RH  056%=      5-min Rain = 0
KTA1 111806Z 18008KT 29/19 A301 RMK A01 T02900192  RH  055%=      5-min Rain = 0
KTA1 111807Z 17007KT 29/19 A301 RMK A01 T02910192  RH  055%=      5-min Rain = 0
KTA1 111808Z 17011KT 29/19 A301 RMK A01 T02930194  RH  055%=      5-min Rain = 0
KTA1 111809Z 18010KT 29/19 A301 RMK A01 T02930193  RH  055%=      5-min Rain = 0
KTA1 111810Z 17010KT 29/19 A301 RMK A01 T02930194  RH  055%=      5-min Rain = 0
KTA1 111811Z 16014KT 29/20 A301 RMK A01 T02930195  RH  055%=      5-min Rain = 0
KTA1 111812Z 16012KT 30/19 A301 RMK A01 T02950194  RH  055%=      5-min Rain = 0
KTA1 111813Z 15011KT 30/19 A301 RMK A01 T02950194  RH  055%=      5-min Rain = 0
KTA1 111814Z 17009KT 29/19 A301 RMK A01 T02930194  RH  055%=      5-min Rain = 0
KTA1 111815Z 16012KT 29/19 A301 RMK A01 T02920193  RH  055%=      5-min Rain = 0
KTA1 111816Z 17010KT 29/19 A301 RMK A01 T02930192  RH  055%=      5-min Rain = 0
KTA1 111817Z 18008KT 29/19 A3009 RMK A01 T02920192  RH  055%=      5-min Rain = 0
KTA1 111818Z 17014KT 29/19 A301 RMK A01 T02920192  RH  055%=      5-min Rain = 0
KTA1 111819Z 16010KT 29/19 A301 RMK A01 T02920192  RH  055%=      5-min Rain = 0
KTA1 111820Z 17008KT 29/19 A301 RMK A01 T02940193  RH  055%=      5-min Rain = 0
KTA1 111821Z 17009KT 30/19 A3009 RMK A01 T02960194  RH  054%=      5-min Rain = 0
KTA1 111822Z 15013KT 30/19 A3009 RMK A01 T02980193  RH  053%=      5-min Rain = 0
KTA1 111823Z 15012KT 30/19 A3009 RMK A01 T02970192  RH  053%=      5-min Rain = 0
KTA1 111824Z 16008KT 29/19 A3009 RMK A01 T02940192  RH  054%=      5-min Rain = 0
KTA1 111825Z 16011KT 29/19 A3009 RMK A01 T02930192  RH  055%=      5-min Rain = 0
KTA1 111826Z 17011KT 29/19 A3009 RMK A01 T02920191  RH  054%=      5-min Rain = 0
KTA1 111827Z 18012KT 29/19 A3009 RMK A01 T02920191  RH  055%=      5-min Rain = 0
KTA1 111828Z 18012KT 29/19 A3009 RMK A01 T02920191  RH  055%=      5-min Rain = 0
KTA1 111829Z 17011KT 29/19 A3009 RMK A01 T02920191  RH  055%=      5-min Rain = 0
KTA1 111830Z 18012KT 29/19 A3009 RMK A01 T02910192  RH  055%=      5-min Rain = 0
KTA1 111831Z 18011KT 29/19 A3009 RMK A01 T02920191  RH  055%=      5-min Rain = 0
KTA1 111832Z 18009KT 29/19 A3009 RMK A01 T02930191  RH  054%=      5-min Rain = 0
KTA1 111833Z 18011G16KT 29/19 A3009 RMK A01 T02920192  RH  055%=      5-min Rain = 0
KTA1 111834Z 17012KT 29/19 A3009 RMK A01 T02920193  RH  055%=      5-min Rain = 0
KTA1 111835Z 15010KT 29/19 A3009 RMK A01 T02930193  RH  055%=      5-min Rain = 0
KTA1 111836Z 16012KT 29/19 A3009 RMK A01 T02940193  RH  055%=      5-min Rain = 0
KTA1 111837Z 15010KT 30/19 A3009 RMK A01 T02950194  RH  054%=      5-min Rain = 0
KTA1 111838Z 15010KT 30/19 A3009 RMK A01 T02980194  RH  054%=      5-min Rain = 0
KTA1 111839Z 15012KT 30/19 A3009 RMK A01 T02990192  RH  053%=      5-min Rain = 0
KTA1 111840Z 15011KT 30/19 A3008 RMK A01 T02980192  RH  053%=      5-min Rain = 0
KTA1 111841Z 16011KT 30/19 A3008 RMK A01 T02980192  RH  053%=      5-min Rain = 0
KTA1 111842Z 18011KT 30/19 A3008 RMK A01 T03000194  RH  053%=      5-min Rain = 0
KTA1 111843Z 15010KT 30/19 A3008 RMK A01 T03030194  RH  052%=      5-min Rain = 0
KTA1 111844Z 15012KT 31/19 A3008 RMK A01 T03050194  RH  052%=      5-min Rain = 0
KTA1 111845Z 16014KT 31/19 A3008 RMK A01 T03060194  RH  051%=      5-min Rain = 0
KTA1 111846Z 17011KT 31/19 A3008 RMK A01 T03070194  RH  051%=      5-min Rain = 0
KTA1 111847Z 15009KT 31/19 A3008 RMK A01 T03060194  RH  051%=      5-min Rain = 0
KTA1 111848Z 16014KT 31/19 A3008 RMK A01 T03050193  RH  051%=      5-min Rain = 0
KTA1 111849Z 17010KT 30/19 A3008 RMK A01 T03040193  RH  051%=      5-min Rain = 0
KTA1 111850Z 17011KT 31/19 A3008 RMK A01 T03050192  RH  051%=      5-min Rain = 0
KTA1 111851Z 17011KT 31/19 A3008 RMK A01 T03050193  RH  051%=      5-min Rain = 0
KTA1 111852Z 17011KT 31/19 A3008 RMK A01 T03050194  RH  051%=      5-min Rain = 0
KTA1 111853Z 16012KT 31/19 A3008 RMK A01 T03070194  RH  051%=      5-min Rain = 0
KTA1 111854Z 16011KT 31/19 A3008 RMK A01 T03060191  RH  050%=      5-min Rain = 0
KTA1 111855Z 16009KT 30/19 A3008 RMK A01 T03030192  RH  051%=      5-min Rain = 0
KTA1 111856Z 15010KT 30/19 A3008 RMK A01 T03030193  RH  052%=      5-min Rain = 0
KTA1 111857Z 16013KT 31/19 A3008 RMK A01 T03050194  RH  052%=      5-min Rain = 0
KTA1 111858Z 17013KT 31/19 A3008 RMK A01 T03070194  RH  051%=      5-min Rain = 0
KTA1 111859Z 15010G15KT 31/20 A3008 RMK A01 T03070195  RH  051%=      5-min Rain = 0
KTA1 111900Z 16011KT 31/20 A3008 RMK A01 T03070195  RH  051%=      5-min Rain = 0
KTA1 111901Z 14012KT 30/19 A3008 RMK A01 T03040193  RH  051%=      5-min Rain = 0
KTA1 111902Z 16011KT 30/19 A3008 RMK A01 T03020192  RH  052%=      5-min Rain = 0
KTA1 111903Z 15010KT 30/19 A3008 RMK A01 T02990192  RH  053%=      5-min Rain = 0
KTA1 111904Z 14009KT 30/19 A3008 RMK A01 T02970192  RH  053%=      5-min Rain = 0
KTA1 111905Z 14007KT 30/19 A3008 RMK A01 T02960192  RH  053%=      5-min Rain = 0
KTA1 111906Z 16009KT 30/19 A3008 RMK A01 T02960192  RH  054%=      5-min Rain = 0
KTA1 111907Z 16009KT 30/19 A3008 RMK A01 T02970192  RH  053%=      5-min Rain = 0
KTA1 111908Z 16011KT 30/19 A3008 RMK A01 T02970192  RH  053%=      5-min Rain = 0
KTA1 111909Z 15010KT 30/19 A3008 RMK A01 T02980192  RH  053%=      5-min Rain = 0
KTA1 111910Z 15011KT 30/19 A3007 RMK A01 T02990192  RH  053%=      5-min Rain = 0
KTA1 111911Z 15012KT 30/19 A3007 RMK A01 T03030192  RH  052%=      5-min Rain = 0
KTA1 111912Z 15012KT 31/19 A3007 RMK A01 T03050193  RH  051%=      5-min Rain = 0
KTA1 111913Z 15008KT 31/19 A3007 RMK A01 T03060191  RH  050%=      5-min Rain = 0
KTA1 111914Z 15007KT 31/19 A3007 RMK A01 T03060193  RH  051%=      5-min Rain = 0
KTA1 111915Z 16009KT 31/19 A3007 RMK A01 T03090194  RH  050%=      5-min Rain = 0
KTA1 111916Z 15008KT 31/20 A3007 RMK A01 T03100195  RH  050%=      5-min Rain = 0
KTA1 111917Z 17012KT 31/19 A3007 RMK A01 T03120194  RH  050%=      5-min Rain = 0
KTA1 111918Z 16013KT 31/19 A3007 RMK A01 T03080191  RH  050%=      5-min Rain = 0
KTA1 111919Z 15011KT 30/19 A3007 RMK A01 T03040190  RH  051%=      5-min Rain = 0
KTA1 111920Z 15010KT 30/19 A3007 RMK A01 T03020190  RH  051%=      5-min Rain = 0
KTA1 111921Z 17013KT 30/19 A3007 RMK A01 T03020190  RH  051%=      5-min Rain = 0
KTA1 111922Z 17011KT 30/19 A3007 RMK A01 T03040190  RH  051%=      5-min Rain = 0
KTA1 111923Z 16009KT 31/19 A3007 RMK A01 T03050191  RH  050%=      5-min Rain = 0
KTA1 111924Z 15011KT 31/19 A3006 RMK A01 T03060192  RH  051%=      5-min Rain = 0
KTA1 111925Z 15010KT 31/19 A3006 RMK A01 T03070192  RH  050%=      5-min Rain = 0
KTA1 111926Z 17010G15KT 31/19 A3006 RMK A01 T03080193  RH  050%=      5-min Rain = 0
KTA1 111927Z 15012KT 31/19 A3006 RMK A01 T03070191  RH  050%=      5-min Rain = 0
KTA1 111928Z 16010KT 31/19 A3006 RMK A01 T03050190  RH  050%=      5-min Rain = 0
KTA1 111929Z 17008KT 31/19 A3006 RMK A01 T03050191  RH  051%=      5-min Rain = 0
KTA1 111930Z 16011KT 31/19 A3006 RMK A01 T03070192  RH  050%=      5-min Rain = 0
KTA1 111931Z 16014KT 31/19 A3006 RMK A01 T03100191  RH  049%=      5-min Rain = 0
KTA1 111932Z 16009G14KT 31/19 A3006 RMK A01 T03120190  RH  048%=      5-min Rain = 0
KTA1 111933Z 17010KT 31/19 A3006 RMK A01 T03140192  RH  048%=      5-min Rain = 0
KTA1 111934Z 18009KT 32/19 A3006 RMK A01 T03150191  RH  048%=      5-min Rain = 0
KTA1 111935Z 17008KT 32/19 A3006 RMK A01 T03150192  RH  048%=      5-min Rain = 0
KTA1 111936Z 17011G16KT 32/19 A3006 RMK A01 T03150190  RH  048%=      5-min Rain = 0
KTA1 111937Z 16012G17KT 31/19 A3005 RMK A01 T03110188  RH  048%=      5-min Rain = 0
KTA1 111938Z 17010KT 31/19 A3005 RMK A01 T03100189  RH  048%=      5-min Rain = 0
KTA1 111939Z 16011KT 31/19 A3005 RMK A01 T03120190  RH  048%=      5-min Rain = 0
KTA1 111940Z 15012KT 32/19 A3005 RMK A01 T03160192  RH  048%=      5-min Rain = 0
KTA1 111941Z 14010KT 32/19 A3005 RMK A01 T03150191  RH  048%=      5-min Rain = 0
KTA1 111942Z 15009KT 31/19 A3005 RMK A01 T03140192  RH  048%=      5-min Rain = 0
KTA1 111943Z 15007G14KT 32/19 A3005 RMK A01 T03160194  RH  048%=      5-min Rain = 0
KTA1 111944Z 16011KT 32/19 A3005 RMK A01 T03200193  RH  047%=      5-min Rain = 0
KTA1 111945Z 17011KT 32/19 A3005 RMK A01 T03200192  RH  047%=      5-min Rain = 0
KTA1 111946Z 17010KT 32/19 A3005 RMK A01 T03170191  RH  047%=      5-min Rain = 0
KTA1 111947Z 19007KT 31/19 A3005 RMK A01 T03110189  RH  048%=      5-min Rain = 0
KTA1 111948Z 17007KT 31/19 A3005 RMK A01 T03060189  RH  049%=      5-min Rain = 0
KTA1 111949Z 14014KT 31/19 A3005 RMK A01 T03050188  RH  050%=      5-min Rain = 0
KTA1 111950Z 14010KT 31/19 A3005 RMK A01 T03070189  RH  049%=      5-min Rain = 0
KTA1 111951Z 14008KT 31/19 A3005 RMK A01 T03070189  RH  049%=      5-min Rain = 0
KTA1 111952Z 14011KT 31/19 A3005 RMK A01 T03070189  RH  049%=      5-min Rain = 0
KTA1 111953Z 14011KT 31/19 A3005 RMK A01 T03060188  RH  049%=      5-min Rain = 0
KTA1 111954Z 16012KT 31/19 A3004 RMK A01 T03050188  RH  050%=      5-min Rain = 0
KTA1 111955Z 17010KT 30/19 A3004 RMK A01 T03030187  RH  050%=      5-min Rain = 0
KTA1 111956Z 16007KT 30/19 A3004 RMK A01 T03030188  RH  050%=      5-min Rain = 0
KTA1 111957Z 18009KT 31/19 A3004 RMK A01 T03070188  RH  049%=      5-min Rain = 0
KTA1 111958Z 17008G13KT 31/19 A3004 RMK A01 T03090187  RH  048%=      5-min Rain = 0
KTA1 111959Z 14010KT 31/19 A3004 RMK A01 T03100188  RH  048%=      5-min Rain = 0
KTA1 112000Z 15009KT 31/19 A3004 RMK A01 T03100188  RH  048%=      5-min Rain = 0
KTA1 112001Z 18008KT 31/19 A3004 RMK A01 T03100188  RH  048%=      5-min Rain = 0
KTA1 112002Z 18008KT 31/19 A3004 RMK A01 T03090189  RH  049%=      5-min Rain = 0
KTA1 112003Z 17009G15KT 31/19 A3004 RMK A01 T03080189  RH  049%=      5-min Rain = 0
KTA1 112004Z 16011KT 31/19 A3004 RMK A01 T03100191  RH  049%=      5-min Rain = 0
KTA1 112005Z 17011KT 31/19 A3004 RMK A01 T03130190  RH  048%=      5-min Rain = 0
KTA1 112006Z 16009KT 31/19 A3004 RMK A01 T03140191  RH  048%=      5-min Rain = 0
KTA1 112007Z 16010KT 31/19 A3004 RMK A01 T03140190  RH  048%=      5-min Rain = 0
KTA1 112008Z 15010KT 31/19 A3004 RMK A01 T03140188  RH  047%=      5-min Rain = 0
KTA1 112009Z 15010KT 32/19 A3004 RMK A01 T03150189  RH  047%=      5-min Rain = 0
KTA1 112010Z 14007KT 32/19 A3004 RMK A01 T03170189  RH  047%=      5-min Rain = 0
KTA1 112011Z 16006KT 32/19 A3004 RMK A01 T03160189  RH  047%=      5-min Rain = 0
KTA1 112012Z 19007KT 32/19 A3004 RMK A01 T03150189  RH  047%=      5-min Rain = 0
KTA1 112013Z 15006KT 31/19 A3004 RMK A01 T03120187  RH  047%=      5-min Rain = 0
KTA1 112014Z 13009KT 31/19 A3004 RMK A01 T03110190  RH  048%=      5-min Rain = 0
KTA1 112015Z 13009KT 31/19 A3004 RMK A01 T03120191  RH  049%=      5-min Rain = 0
KTA1 112016Z 13010KT 32/19 A3004 RMK A01 T03150192  RH  048%=      5-min Rain = 0
KTA1 112017Z 15012KT 32/19 A3004 RMK A01 T03150192  RH  048%=      5-min Rain = 0
KTA1 112018Z 18011KT 32/19 A3003 RMK A01 T03160189  RH  047%=      5-min Rain = 0
KTA1 112019Z 19013KT 32/19 A3003 RMK A01 T03170188  RH  046%=      5-min Rain = 0
KTA1 112020Z 18010G15KT 32/19 A3003 RMK A01 T03170187  RH  046%=      5-min Rain = 0
KTA1 112021Z 18010KT 32/19 A3003 RMK A01 T03180186  RH  046%=      5-min Rain = 0
KTA1 112022Z 17006KT 32/19 A3003 RMK A01 T03180185  RH  045%=      5-min Rain = 0
KTA1 112023Z 17008KT 32/19 A3003 RMK A01 T03180185  RH  045%=      5-min Rain = 0
KTA1 112024Z 18006KT 32/18 A3003 RMK A01 T03190184  RH  045%=      5-min Rain = 0
KTA1 112025Z 17011KT 32/19 A3003 RMK A01 T03190185  RH  045%=      5-min Rain = 0
KTA1 112026Z 17008G13KT 32/19 A3003 RMK A01 T03190186  RH  045%=      5-min Rain = 0
KTA1 112027Z 19011KT 32/19 A3003 RMK A01 T03180187  RH  046%=      5-min Rain = 0
KTA1 112028Z 18013KT 32/19 A3002 RMK A01 T03170186  RH  046%=      5-min Rain = 0
KTA1 112029Z 16011KT 32/19 A3002 RMK A01 T03170185  RH  045%=      5-min Rain = 0
KTA1 112030Z 15009KT 32/18 A3002 RMK A01 T03180184  RH  045%=      5-min Rain = 0
KTA1 112031Z 17005KT 32/18 A3002 RMK A01 T03150184  RH  046%=      5-min Rain = 0
KTA1 112032Z 18009KT 32/19 A3002 RMK A01 T03170185  RH  045%=      5-min Rain = 0
KTA1 112033Z 18009G14KT 32/18 A3002 RMK A01 T03190184  RH  045%=      5-min Rain = 0
KTA1 112034Z 18011KT 32/18 A3002 RMK A01 T03180183  RH  045%=      5-min Rain = 0
KTA1 112035Z 18011KT 31/18 A3002 RMK A01 T03140184  RH  046%=      5-min Rain = 0
KTA1 112036Z 18010KT 31/19 A3002 RMK A01 T03090185  RH  048%=      5-min Rain = 0
KTA1 112037Z 16011KT 31/19 A3002 RMK A01 T03080186  RH  048%=      5-min Rain = 0
KTA1 112038Z 17008KT 31/19 A3002 RMK A01 T03080186  RH  048%=      5-min Rain = 0
KTA1 112039Z 17009KT 31/19 A3002 RMK A01 T03090186  RH  048%=      5-min Rain = 0
KTA1 112040Z 17010KT 31/19 A3002 RMK A01 T03100186  RH  048%=      5-min Rain = 0
KTA1 112041Z 16009KT 31/19 A3002 RMK A01 T03110186  RH  047%=      5-min Rain = 0
KTA1 112042Z 17009KT 31/18 A3002 RMK A01 T03110184  RH  047%=      5-min Rain = 0
KTA1 112043Z 16008KT 31/19 A3002 RMK A01 T03120185  RH  047%=      5-min Rain = 0
KTA1 112044Z 16011KT 31/19 A3002 RMK A01 T03130186  RH  047%=      5-min Rain = 0
KTA1 112045Z 15012KT 32/19 A3002 RMK A01 T03160185  RH  046%=      5-min Rain = 0
KTA1 112046Z 16009KT 32/18 A3002 RMK A01 T03170184  RH  045%=      5-min Rain = 0
KTA1 112047Z 18008KT 32/19 A3001 RMK A01 T03180185  RH  045%=      5-min Rain = 0
KTA1 112048Z 18009KT 32/19 A3001 RMK A01 T03200185  RH  045%=      5-min Rain = 0
KTA1 112049Z 19008KT 32/18 A3001 RMK A01 T03220184  RH  044%=      5-min Rain = 0
KTA1 112050Z 18007KT 32/18 A3001 RMK A01 T03230183  RH  043%=      5-min Rain = 0
KTA1 112051Z 17013KT 32/18 A3001 RMK A01 T03240184  RH  044%=      5-min Rain = 0
KTA1 112052Z 17011KT 32/18 A3001 RMK A01 T03210184  RH  044%=      5-min Rain = 0
KTA1 112053Z 17014KT 32/18 A3001 RMK A01 T03180184  RH  045%=      5-min Rain = 0
KTA1 112054Z 16009KT 32/18 A3001 RMK A01 T03160183  RH  045%=      5-min Rain = 0
KTA1 112055Z 18010KT 32/18 A3001 RMK A01 T03180184  RH  045%=      5-min Rain = 0
KTA1 112056Z 17009KT 32/18 A3001 RMK A01 T03220184  RH  044%=      5-min Rain = 0
KTA1 112057Z 16009KT 32/18 A3001 RMK A01 T03230184  RH  044%=      5-min Rain = 0
KTA1 112058Z 18011KT 32/19 A3001 RMK A01 T03240186  RH  044%=      5-min Rain = 0
KTA1 112059Z 15010KT 33/19 A3001 RMK A01 T03250186  RH  044%=      5-min Rain = 0
KTA1 112100Z 15008G13KT 32/19 A3001 RMK A01 T03230187  RH  044%=      5-min Rain = 0
KTA1 112101Z 14015KT 32/19 A3001 RMK A01 T03210187  RH  045%=      5-min Rain = 0
KTA1 112102Z 13011KT 32/19 A3001 RMK A01 T03190187  RH  045%=      5-min Rain = 0
KTA1 112103Z 14011KT 32/19 A3001 RMK A01 T03200188  RH  045%=      5-min Rain = 0
KTA1 112104Z 13011KT 32/19 A3001 RMK A01 T03220188  RH  045%=      5-min Rain = 0
KTA1 112105Z 13011KT 32/19 A3001 RMK A01 T03240189  RH  045%=      5-min Rain = 0
KTA1 112106Z 12013KT 33/19 A3001 RMK A01 T03260189  RH  044%=      5-min Rain = 0
KTA1 112107Z 14012KT 33/19 A3001 RMK A01 T03260189  RH  045%=      5-min Rain = 0
KTA1 112108Z 14016KT 33/19 A3001 RMK A01 T03250190  RH  045%=      5-min Rain = 0
KTA1 112109Z 14015KT 32/19 A3001 RMK A01 T03230190  RH  045%=      5-min Rain = 0
KTA1 112110Z 14015KT 32/19 A3001 RMK A01 T03210191  RH  046%=      5-min Rain = 0
KTA1 112111Z 14013KT 32/19 A3001 RMK A01 T03220189  RH  045%=      5-min Rain = 0
KTA1 112112Z 13012KT 32/19 A3001 RMK A01 T03200189  RH  046%=      5-min Rain = 0
KTA1 112113Z 14010KT 32/19 A3001 RMK A01 T03180189  RH  046%=      5-min Rain = 0
KTA1 112114Z 13013G19KT 32/19 A3001 RMK A01 T03200190  RH  046%=      5-min Rain = 0
KTA1 112115Z 15015KT 32/19 A3001 RMK A01 T03230189  RH  045%=      5-min Rain = 0
KTA1 112116Z 15012KT 33/19 A3001 RMK A01 T03250188  RH  044%=      5-min Rain = 0
KTA1 112117Z 16012KT 33/19 A3001 RMK A01 T03250189  RH  045%=      5-min Rain = 0
KTA1 112118Z 16009KT 33/19 A3001 RMK A01 T03250188  RH  044%=      5-min Rain = 0
KTA1 112119Z 16008KT 32/19 A3001 RMK A01 T03230187  RH  044%=      5-min Rain = 0
KTA1 112120Z 15012KT 32/19 A3001 RMK A01 T03220188  RH  045%=      5-min Rain = 0
KTA1 112121Z 16014KT 32/19 A3001 RMK A01 T03230188  RH  045%=      5-min Rain = 0
KTA1 112122Z 15011KT 32/19 A3001 RMK A01 T03240187  RH  044%=      5-min Rain = 0
KTA1 112123Z 14008KT 32/19 A3001 RMK A01 T03230186  RH  044%=      5-min Rain = 0
KTA1 112124Z 17015KT 32/19 A3001 RMK A01 T03230188  RH  045%=      5-min Rain = 0
KTA1 112125Z 16012KT 32/19 A3001 RMK A01 T03240186  RH  044%=      5-min Rain = 0
KTA1 112126Z 14013KT 33/19 A3001 RMK A01 T03250186  RH  044%=      5-min Rain = 0
KTA1 112127Z 14010KT 33/19 A3001 RMK A01 T03250187  RH  044%=      5-min Rain = 0
KTA1 112128Z 14011G16KT 33/19 A3001 RMK A01 T03260188  RH  044%=      5-min Rain = 0
KTA1 112129Z 12015G23KT 33/19 A3001 RMK A01 T03290193  RH  045%=      5-min Rain = 0
KTA1 112130Z 12015KT 32/20 A3001 RMK A01 T03230197  RH  047%=      5-min Rain = 0
KTA1 112131Z 12017KT 32/20 A3001 RMK A01 T03150196  RH  049%=      5-min Rain = 0
KTA1 112132Z 12019G25KT 31/20 A3001 RMK A01 T03100195  RH  051%=      5-min Rain = 0
KTA1 112133Z 11021KT 31/19 A3001 RMK A01 T03060194  RH  051%=      5-min Rain = 0
KTA1 112134Z 11018KT 30/19 A3001 RMK A01 T03030194  RH  052%=      5-min Rain = 0
KTA1 112135Z 13018KT 30/19 A3001 RMK A01 T03010194  RH  053%=      5-min Rain = 0
KTA1 112136Z 12017KT 30/19 A3001 RMK A01 T03010194  RH  053%=      5-min Rain = 0
KTA1 112137Z 12018KT 30/19 A3001 RMK A01 T03010194  RH  053%=      5-min Rain = 0
KTA1 112138Z 11019KT 30/19 A3001 RMK A01 T02990192  RH  053%=      5-min Rain = 0
KTA1 112139Z 12017KT 30/19 A3001 RMK A01 T02980192  RH  053%=      5-min Rain = 0
KTA1 112140Z 12016KT 30/19 A3001 RMK A01 T02990193  RH  053%=      5-min Rain = 0
KTA1 112141Z 13017KT 30/19 A3001 RMK A01 T03020193  RH  052%=      5-min Rain = 0
KTA1 112142Z 13017KT 30/19 A3001 RMK A01 T03030193  RH  052%=      5-min Rain = 0
KTA1 112143Z 12018KT 30/19 A3001 RMK A01 T03020194  RH  052%=      5-min Rain = 0
KTA1 112144Z 12019KT 30/19 A3001 RMK A01 T03020194  RH  052%=      5-min Rain = 0
KTA1 112145Z 13017KT 30/19 A3001 RMK A01 T03010194  RH  053%=      5-min Rain = 0
KTA1 112146Z 12015KT 30/19 A3001 RMK A01 T03000194  RH  053%=      5-min Rain = 0
KTA1 112147Z 12017KT 30/19 A3001 RMK A01 T02990194  RH  053%=      5-min Rain = 0
KTA1 112148Z 12019KT 30/19 A3001 RMK A01 T02990193  RH  053%=      5-min Rain = 0
KTA1 112149Z 12018KT 30/19 A3001 RMK A01 T02970194  RH  054%=      5-min Rain = 0
KTA1 112150Z 11018KT 30/20 A3001 RMK A01 T02970195  RH  054%=      5-min Rain = 0
KTA1 112151Z 11018G23KT 30/20 A3001 RMK A01 T02970196  RH  055%=      5-min Rain = 0
KTA1 112152Z 12016KT 30/20 A3001 RMK A01 T02970196  RH  055%=      5-min Rain = 0
KTA1 112153Z 12017KT 30/20 A30 RMK A01 T02980197  RH  055%=      5-min Rain = 0
KTA1 112154Z 11018KT 30/20 A3001 RMK A01 T02990196  RH  054%=      5-min Rain = 0
KTA1 112155Z 13014G20KT 30/20 A30 RMK A01 T02990198  RH  055%=      5-min Rain = 0
KTA1 112156Z 13018KT 30/20 A30 RMK A01 T03000196  RH  054%=      5-min Rain = 0
KTA1 112157Z 12016G24KT 30/20 A30 RMK A01 T03000197  RH  054%=      5-min Rain = 0
KTA1 112158Z 12020KT 30/20 A30 RMK A01 T03010195  RH  053%=      5-min Rain = 0
KTA1 112159Z 11019KT 30/19 A3001 RMK A01 T03000193  RH  053%=      5-min Rain = 0
KTA1 112200Z 11018KT 30/19 A30 RMK A01 T02970194  RH  054%=      5-min Rain = 0
KTA1 112201Z 12017KT 30/20 A30 RMK A01 T02960195  RH  055%=      5-min Rain = 0
KTA1 112202Z 12016KT 30/20 A30 RMK A01 T02970195  RH  054%=      5-min Rain = 0
KTA1 112203Z 12017G22KT 30/20 A30 RMK A01 T02980196  RH  054%=      5-min Rain = 0
KTA1 112204Z 12017KT 30/20 A30 RMK A01 T02990195  RH  054%=      5-min Rain = 0
KTA1 112205Z 12016G21KT 30/20 A30 RMK A01 T03000196  RH  054%=      5-min Rain = 0
KTA1 112206Z 13018KT 30/20 A30 RMK A01 T03010196  RH  054%=      5-min Rain = 0
KTA1 112207Z 12017KT 30/20 A30 RMK A01 T03010197  RH  054%=      5-min Rain = 0
KTA1 112208Z 12018KT 30/20 A30 RMK A01 T03010197  RH  054%=      5-min Rain = 0
KTA1 112209Z 12017KT 30/20 A30 RMK A01 T03000198  RH  054%=      5-min Rain = 0
KTA1 112210Z 11019KT 30/20 A3001 RMK A01 T03000196  RH  054%=      5-min Rain = 0
KTA1 112211Z 11019KT 30/20 A3001 RMK A01 T02990196  RH  054%=      5-min Rain = 0
KTA1 112212Z 12019KT 30/20 A3001 RMK A01 T02970195  RH  054%=      5-min Rain = 0
KTA1 112213Z 13016KT 30/20 A3001 RMK A01 T02970196  RH  055%=      5-min Rain = 0
KTA1 112214Z 13018KT 30/20 A3001 RMK A01 T02990197  RH  054%=      5-min Rain = 0
KTA1 112215Z 13020KT 30/20 A3001 RMK A01 T03000196  RH  053%=      5-min Rain = 0
KTA1 112216Z 13016G21KT 30/20 A3001 RMK A01 T03000196  RH  054%=      5-min Rain = 0
KTA1 112217Z 13018KT 30/20 A3001 RMK A01 T02990195  RH  054%=      5-min Rain = 0
KTA1 112218Z 13015KT 30/20 A3001 RMK A01 T02980195  RH  054%=      5-min Rain = 0
KTA1 112219Z 12016KT 30/20 A3001 RMK A01 T02980195  RH  054%=      5-min Rain = 0
KTA1 112220Z 14015KT 30/20 A3001 RMK A01 T02980196  RH  054%=      5-min Rain = 0
KTA1 112221Z 13015KT 30/20 A3001 RMK A01 T02990197  RH  054%=      5-min Rain = 0
KTA1 112222Z 12015G20KT 30/20 A3001 RMK A01 T03000197  RH  054%=      5-min Rain = 0
KTA1 112223Z 13015G20KT 30/20 A3001 RMK A01 T02990198  RH  055%=      5-min Rain = 0
KTA1 112224Z 13017KT 30/20 A3001 RMK A01 T02980199  RH  056%=      5-min Rain = 0
KTA1 112225Z 13016KT 30/20 A3001 RMK A01 T02970200  RH  056%=      5-min Rain = 0
KTA1 112226Z 13015KT 30/20 A30 RMK A01 T02960200  RH  056%=      5-min Rain = 0
KTA1 112227Z 13016G21KT 30/20 A30 RMK A01 T02950201  RH  057%=      5-min Rain = 0
KTA1 112228Z 13015G20KT 30/20 A30 RMK A01 T02950200  RH  057%=      5-min Rain = 0
KTA1 112229Z 13018KT 29/20 A30 RMK A01 T02930199  RH  057%=      5-min Rain = 0
KTA1 112230Z 13015KT 29/20 A30 RMK A01 T02900199  RH  058%=      5-min Rain = 0
KTA1 112231Z 13014KT 29/20 A30 RMK A01 T02890200  RH  058%=      5-min Rain = 0
KTA1 112232Z 13014KT 29/20 A30 RMK A01 T02890199  RH  058%=      5-min Rain = 0
KTA1 112233Z 13014KT 29/20 A30 RMK A01 T02890199  RH  058%=      5-min Rain = 0
KTA1 112234Z 13014G19KT 29/20 A30 RMK A01 T02900199  RH  058%=      5-min Rain = 0
KTA1 112235Z 13016KT 29/20 A30 RMK A01 T02900198  RH  058%=      5-min Rain = 0
KTA1 112236Z 14015KT 29/20 A30 RMK A01 T02890198  RH  058%=      5-min Rain = 0
KTA1 112237Z 13012KT 29/20 A30 RMK A01 T02890197  RH  058%=      5-min Rain = 0
KTA1 112238Z 13014KT 29/20 A30 RMK A01 T02890198  RH  058%=      5-min Rain = 0
KTA1 112239Z 12011KT 29/20 A30 RMK A01 T02890198  RH  058%=      5-min Rain = 0
KTA1 112240Z 13011KT 29/20 A30 RMK A01 T02900198  RH  058%=      5-min Rain = 0
KTA1 112241Z 13013KT 29/20 A30 RMK A01 T02910198  RH  057%=      5-min Rain = 0
KTA1 112242Z 13016KT 29/20 A30 RMK A01 T02910199  RH  057%=      5-min Rain = 0
KTA1 112243Z 13017KT 29/20 A30 RMK A01 T02920198  RH  057%=      5-min Rain = 0
KTA1 112244Z 13017KT 29/20 A30 RMK A01 T02910198  RH  057%=      5-min Rain = 0
KTA1 112245Z 13018KT 29/20 A30 RMK A01 T02910198  RH  057%=      5-min Rain = 0
KTA1 112246Z 13018KT 29/20 A30 RMK A01 T02920199  RH  058%=      5-min Rain = 0
KTA1 112247Z 13017KT 29/20 A30 RMK A01 T02910200  RH  058%=      5-min Rain = 0
KTA1 112248Z 13014KT 29/20 A30 RMK A01 T02900200  RH  058%=      5-min Rain = 0
KTA1 112249Z 14015KT 29/20 A30 RMK A01 T02890200  RH  058%=      5-min Rain = 0
KTA1 112250Z 14014KT 29/20 A2999 RMK A01 T02890199  RH  058%=      5-min Rain = 0
KTA1 112251Z 14015G20KT 29/20 A2999 RMK A01 T02890198  RH  058%=      5-min Rain = 0
KTA1 112252Z 13016KT 29/20 A2999 RMK A01 T02880197  RH  058%=      5-min Rain = 0
KTA1 112253Z 13015KT 29/20 A2999 RMK A01 T02860196  RH  058%=      5-min Rain = 0
KTA1 112254Z 14016KT 29/20 A30 RMK A01 T02850196  RH  058%=      5-min Rain = 0
KTA1 112255Z 14016KT 28/20 A30 RMK A01 T02840196  RH  059%=      5-min Rain = 0
KTA1 112256Z 13013KT 28/20 A30 RMK A01 T02830196  RH  059%=      5-min Rain = 0
KTA1 112257Z 14016KT 28/20 A30 RMK A01 T02830195  RH  059%=      5-min Rain = 0
KTA1 112258Z 14014KT 28/19 A30 RMK A01 T02820194  RH  059%=      5-min Rain = 0
KTA1 112259Z 14014KT 28/19 A30 RMK A01 T02820193  RH  058%=      5-min Rain = 0
KTA1 112300Z 13013KT 28/19 A30 RMK A01 T02820192  RH  058%=      5-min Rain = 0
KTA1 112301Z 14012KT 28/19 A30 RMK A01 T02820191  RH  058%=      5-min Rain = 0
KTA1 112302Z 14014KT 28/19 A30 RMK A01 T02820191  RH  058%=      5-min Rain = 0
KTA1 112303Z 13016KT 28/19 A30 RMK A01 T02810190  RH  058%=      5-min Rain = 0
KTA1 112304Z 13014KT 28/19 A30 RMK A01 T02810190  RH  058%=      5-min Rain = 0
KTA1 112305Z 13010KT 28/19 A30 RMK A01 T02800191  RH  058%=      5-min Rain = 0
KTA1 112306Z 13014KT 28/19 A30 RMK A01 T02810189  RH  058%=      5-min Rain = 0
KTA1 112307Z 13013KT 28/19 A3001 RMK A01 T02810188  RH  057%=      5-min Rain = 0
KTA1 112308Z 13013KT 28/19 A3001 RMK A01 T02810188  RH  057%=      5-min Rain = 0
KTA1 112309Z 12010KT 28/19 A3001 RMK A01 T02800188  RH  057%=      5-min Rain = 0
KTA1 112310Z 13010KT 28/19 A3001 RMK A01 T02810189  RH  057%=      5-min Rain = 0
KTA1 112311Z 13011KT 28/19 A3001 RMK A01 T02810188  RH  057%=      5-min Rain = 0
KTA1 112312Z 12011KT 28/19 A3001 RMK A01 T02810186  RH  056%=      5-min Rain = 0
KTA1 112313Z 13011KT 28/19 A3001 RMK A01 T02810186  RH  056%=      5-min Rain = 0
KTA1 112314Z 13012KT 28/19 A3001 RMK A01 T02810185  RH  056%=      5-min Rain = 0
KTA1 112315Z 13009KT 28/19 A3001 RMK A01 T02810185  RH  056%=      5-min Rain = 0
KTA1 112316Z 13009KT 28/19 A30 RMK A01 T02810185  RH  056%=      5-min Rain = 0
KTA1 112317Z 12011KT 28/19 A30 RMK A01 T02810185  RH  056%=      5-min Rain = 0
KTA1 112318Z 13012KT 28/18 A30 RMK A01 T02810184  RH  056%=      5-min Rain = 0
KTA1 112319Z 13011KT 28/18 A30 RMK A01 T02810184  RH  055%=      5-min Rain = 0
KTA1 112320Z 13012KT 28/18 A30 RMK A01 T02810181  RH  055%=      5-min Rain = 0
KTA1 112321Z 13012KT 28/18 A30 RMK A01 T02810180  RH  054%=      5-min Rain = 0
KTA1 112322Z 13012KT 28/18 A30 RMK A01 T02810179  RH  054%=      5-min Rain = 0
KTA1 112323Z 13009KT 28/18 A30 RMK A01 T02810179  RH  054%=      5-min Rain = 0
KTA1 112324Z 13008KT 28/18 A30 RMK A01 T02810180  RH  054%=      5-min Rain = 0
KTA1 112325Z 13010KT 28/18 A30 RMK A01 T02810180  RH  054%=      5-min Rain = 0
KTA1 112326Z 13008KT 28/18 A30 RMK A01 T02810179  RH  054%=      5-min Rain = 0
KTA1 112327Z 13011KT 28/18 A30 RMK A01 T02810180  RH  054%=      5-min Rain = 0
KTA1 112328Z 13012KT 28/18 A30 RMK A01 T02810182  RH  055%=      5-min Rain = 0
KTA1 112329Z 14011KT 28/18 A30 RMK A01 T02800183  RH  055%=      5-min Rain = 0
KTA1 112330Z 14012KT 28/18 A30 RMK A01 T02800184  RH  056%=      5-min Rain = 0
KTA1 112331Z 14011KT 28/19 A30 RMK A01 T02800185  RH  056%=      5-min Rain = 0
KTA1 112332Z 13010KT 28/19 A3001 RMK A01 T02800186  RH  057%=      5-min Rain = 0
KTA1 112333Z 13008KT 28/19 A3001 RMK A01 T02800186  RH  057%=      5-min Rain = 0
KTA1 112334Z 13008KT 28/19 A3001 RMK A01 T02800187  RH  057%=      5-min Rain = 0
KTA1 112335Z 13006KT 28/19 A3001 RMK A01 T02800187  RH  057%=      5-min Rain = 0
KTA1 112336Z 14007KT 28/19 A3001 RMK A01 T02800187  RH  057%=      5-min Rain = 0
KTA1 112337Z 14008KT 28/19 A3001 RMK A01 T02810188  RH  057%=      5-min Rain = 0
KTA1 112338Z 14010KT 28/19 A3001 RMK A01 T02810190  RH  058%=      5-min Rain = 0
KTA1 112339Z 14008KT 28/19 A3001 RMK A01 T02810190  RH  058%=      5-min Rain = 0
KTA1 112340Z 14008KT 28/19 A3001 RMK A01 T02800191  RH  058%=      5-min Rain = 0
KTA1 112341Z 14008KT 28/19 A3001 RMK A01 T02800191  RH  058%=      5-min Rain = 0
KTA1 112342Z 14008KT 28/19 A3001 RMK A01 T02800191  RH  059%=      5-min Rain = 0
KTA1 112343Z 14008KT 28/19 A3001 RMK A01 T02800192  RH  059%=      5-min Rain = 0
KTA1 112344Z 14008KT 28/19 A3001 RMK A01 T02800192  RH  059%=      5-min Rain = 0
KTA1 112345Z 14007KT 28/19 A3001 RMK A01 T02800192  RH  059%=      5-min Rain = 0
KTA1 112346Z 14008KT 28/19 A3001 RMK A01 T02800192  RH  059%=      5-min Rain = 0
KTA1 112347Z 13006KT 28/19 A3001 RMK A01 T02800193  RH  059%=      5-min Rain = 0
KTA1 112348Z 14007KT 28/19 A3001 RMK A01 T02800193  RH  059%=      5-min Rain = 0
KTA1 112349Z 13007KT 28/19 A3001 RMK A01 T02800193  RH  059%=      5-min Rain = 0
KTA1 112350Z 13008KT 28/19 A3001 RMK A01 T02800193  RH  059%=      5-min Rain = 0
KTA1 112351Z 14009KT 28/19 A3001 RMK A01 T02800193  RH  059%=      5-min Rain = 0
KTA1 112352Z 14007KT 28/19 A3001 RMK A01 T02800194  RH  059%=      5-min Rain = 0
KTA1 112353Z 14007KT 28/19 A3002 RMK A01 T02800194  RH  059%=      5-min Rain = 0
KTA1 112354Z 14008KT 28/19 A3002 RMK A01 T02800194  RH  059%=      5-min Rain = 0
KTA1 112355Z 14009KT 28/19 A3002 RMK A01 T02810194  RH  059%=      5-min Rain = 0
KTA1 112356Z 14008KT 28/19 A3002 RMK A01 T02810194  RH  059%=      5-min Rain = 0
KTA1 112357Z 14008KT 28/19 A3002 RMK A01 T02810194  RH  059%=      5-min Rain = 0
KTA1 112358Z 14008KT 28/19 A3002 RMK A01 T02810194  RH  059%=      5-min Rain = 0
KTA1 112359Z 14008KT 28/19 A3003 RMK A01 T02810194  RH  059%=      5-min Rain = 0
KTA1 120000Z 14008KT 28/19 A3003 RMK A01 T02810194  RH  059%=      5-min Rain = 0
KTA1 120001Z 14007KT 28/19 A3003 RMK A01 T02810194  RH  059%=      5-min Rain = 0
KTA1 120002Z 14008KT 28/19 A3003 RMK A01 T02810194  RH  059%=      5-min Rain = 0
KTA1 120003Z 15008KT 28/19 A3003 RMK A01 T02810194  RH  059%=      5-min Rain = 0
KTA1 120004Z 15006KT 28/19 A3003 RMK A01 T02810194  RH  059%=      5-min Rain = 0
KTA1 120005Z 15007KT 28/19 A3003 RMK A01 T02810194  RH  059%=      5-min Rain = 0
KTA1 120006Z 15007KT 28/19 A3003 RMK A01 T02810194  RH  059%=      5-min Rain = 0
KTA1 120007Z 15008KT 28/19 A3003 RMK A01 T02810194  RH  059%=      5-min Rain = 0
KTA1 120008Z 15007KT 28/19 A3003 RMK A01 T02820194  RH  059%=      5-min Rain = 0
KTA1 120009Z 15008KT 28/19 A3003 RMK A01 T02810194  RH  059%=      5-min Rain = 0
KTA1 120010Z 15007KT 28/19 A3003 RMK A01 T02810194  RH  059%=      5-min Rain = 0
KTA1 120011Z 15005KT 28/19 A3003 RMK A01 T02810194  RH  059%=      5-min Rain = 0
KTA1 120012Z 15006KT 28/19 A3003 RMK A01 T02810194  RH  059%=      5-min Rain = 0
KTA1 120013Z 16005KT 28/19 A3003 RMK A01 T02810194  RH  059%=      5-min Rain = 0
KTA1 120014Z 15005KT 28/19 A3003 RMK A01 T02810194  RH  059%=      5-min Rain = 0
KTA1 120015Z 15005KT 28/19 A3003 RMK A01 T02810194  RH  059%=      5-min Rain = 0
KTA1 120016Z 16005KT 28/19 A3003 RMK A01 T02810194  RH  059%=      5-min Rain = 0
KTA1 120017Z 16005KT 28/19 A3003 RMK A01 T02810194  RH  059%=      5-min Rain = 0
KTA1 120018Z 15005KT 28/19 A3003 RMK A01 T02810194  RH  059%=      5-min Rain = 0
KTA1 120019Z 15006KT 28/19 A3003 RMK A01 T02810194  RH  059%=      5-min Rain = 0
KTA1 120020Z 15006KT 28/19 A3003 RMK A01 T02810194  RH  059%=      5-min Rain = 0
KTA1 120021Z 15005KT 28/19 A3003 RMK A01 T02810194  RH  059%=      5-min Rain = 0
KTA1 120022Z 15006KT 28/19 A3003 RMK A01 T02810194  RH  059%=      5-min Rain = 0
KTA1 120023Z 15006KT 28/19 A3003 RMK A01 T02810194  RH  059%=      5-min Rain = 0
KTA1 120024Z 15007KT 28/19 A3002 RMK A01 T02810194  RH  059%=      5-min Rain = 0
KTA1 120025Z 15006KT 28/19 A3002 RMK A01 T02810194  RH  059%=      5-min Rain = 0
KTA1 120026Z 15006KT 28/19 A3002 RMK A01 T02810194  RH  059%=      5-min Rain = 0
KTA1 120027Z 15006KT 28/19 A3002 RMK A01 T02810194  RH  059%=      5-min Rain = 0
KTA1 120028Z 15004KT 28/19 A3003 RMK A01 T02810194  RH  059%=      5-min Rain = 0
KTA1 120029Z 15005KT 28/19 A3003 RMK A01 T02810194  RH  059%=      5-min Rain = 0
KTA1 120030Z 16005KT 28/19 A3003 RMK A01 T02810194  RH  059%=      5-min Rain = 0
KTA1 120031Z 16005KT 28/19 A3003 RMK A01 T02810194  RH  059%=      5-min Rain = 0
KTA1 120032Z 16004KT 28/19 A3003 RMK A01 T02810194  RH  059%=      5-min Rain = 0
KTA1 120033Z 15005KT 28/19 A3004 RMK A01 T02810194  RH  059%=      5-min Rain = 0
KTA1 120034Z 15005KT 28/19 A3004 RMK A01 T02810193  RH  059%=      5-min Rain = 0
KTA1 120035Z 15004KT 28/19 A3004 RMK A01 T02810192  RH  059%=      5-min Rain = 0
KTA1 120036Z 15004KT 28/19 A3004 RMK A01 T02810192  RH  059%=      5-min Rain = 0
KTA1 120037Z 15004KT 28/19 A3004 RMK A01 T02810192  RH  059%=      5-min Rain = 0
KTA1 120038Z 15003KT 28/19 A3004 RMK A01 T02810193  RH  059%=      5-min Rain = 0
KTA1 120039Z 15004KT 28/19 A3004 RMK A01 T02810192  RH  059%=      5-min Rain = 0
KTA1 120040Z 16004KT 28/19 A3004 RMK A01 T02810192  RH  058%=      5-min Rain = 0
KTA1 120041Z 16005KT 28/19 A3004 RMK A01 T02810191  RH  058%=      5-min Rain = 0
KTA1 120042Z 16004KT 28/19 A3004 RMK A01 T02810192  RH  058%=      5-min Rain = 0
KTA1 120043Z 16006KT 28/19 A3004 RMK A01 T02810191  RH  058%=      5-min Rain = 0
KTA1 120044Z 17005KT 28/19 A3004 RMK A01 T02810190  RH  058%=      5-min Rain = 0
KTA1 120045Z 18006KT 28/19 A3004 RMK A01 T02820190  RH  058%=      5-min Rain = 0
KTA1 120046Z 17006KT 28/19 A3004 RMK A01 T02820190  RH  057%=      5-min Rain = 0
KTA1 120047Z 17007KT 28/19 A3004 RMK A01 T02830189  RH  057%=      5-min Rain = 0
KTA1 120048Z 17006KT 28/19 A3004 RMK A01 T02830189  RH  057%=      5-min Rain = 0
KTA1 120049Z 18005KT 28/19 A3004 RMK A01 T02840189  RH  057%=      5-min Rain = 0
KTA1 120050Z 17008KT 28/19 A3004 RMK A01 T02840190  RH  057%=      5-min Rain = 0
KTA1 120051Z 18007KT 28/19 A3004 RMK A01 T02840189  RH  056%=      5-min Rain = 0
KTA1 120052Z 18008KT 28/19 A3004 RMK A01 T02840189  RH  056%=      5-min Rain = 0
KTA1 120053Z 18007KT 28/19 A3004 RMK A01 T02840189  RH  056%=      5-min Rain = 0
KTA1 120054Z 17006KT 28/19 A3004 RMK A01 T02840189  RH  056%=      5-min Rain = 0
KTA1 120055Z 18005KT 28/19 A3004 RMK A01 T02840190  RH  057%=      5-min Rain = 0
KTA1 120056Z 19004KT 29/19 A3004 RMK A01 T02850190  RH  057%=      5-min Rain = 0
KTA1 120057Z 19005KT 29/19 A3004 RMK A01 T02850191  RH  057%=      5-min Rain = 0
KTA1 120058Z 20005KT 28/19 A3004 RMK A01 T02840191  RH  057%=      5-min Rain = 0
KTA1 120059Z 21007KT 28/19 A3004 RMK A01 T02840191  RH  057%=      5-min Rain = 0
KTA1 120100Z 26006KT 28/19 A3004 RMK A01 T02830193  RH  058%=      5-min Rain = 0
KTA1 120101Z 27007KT 28/19 A3004 RMK A01 T02800193  RH  059%=      5-min Rain = 0
KTA1 120102Z 26006KT 28/19 A3004 RMK A01 T02780193  RH  060%=      5-min Rain = 0
KTA1 120103Z 27007KT 28/19 A3004 RMK A01 T02770194  RH  061%=      5-min Rain = 0
KTA1 120104Z 28009KT 28/19 A3004 RMK A01 T02750193  RH  061%=      5-min Rain = 0
KTA1 120105Z 27009KT 27/19 A3005 RMK A01 T02710193  RH  062%=      5-min Rain = 0
KTA1 120106Z 27008KT 27/19 A3005 RMK A01 T02680193  RH  063%=      5-min Rain = 0
KTA1 120107Z 27008KT 27/19 A3005 RMK A01 T02660193  RH  064%=      5-min Rain = 0
KTA1 120108Z 28008KT 27/19 A3005 RMK A01 T02650193  RH  065%=      5-min Rain = 0
KTA1 120109Z 28007KT 26/19 A3005 RMK A01 T02640194  RH  065%=      5-min Rain = 0
KTA1 120110Z 28010KT 26/19 A3005 RMK A01 T02630194  RH  066%=      5-min Rain = 0
KTA1 120111Z 28009KT 26/19 A3005 RMK A01 T02630194  RH  066%=      5-min Rain = 0
KTA1 120112Z 28008KT 26/19 A3005 RMK A01 T02620194  RH  066%=      5-min Rain = 0
KTA1 120113Z 28008KT 26/19 A3005 RMK A01 T02620193  RH  066%=      5-min Rain = 0
KTA1 120114Z 28006KT 26/19 A3005 RMK A01 T02620193  RH  066%=      5-min Rain = 0
KTA1 120115Z 29009KT 26/19 A3005 RMK A01 T02620193  RH  066%=      5-min Rain = 0
KTA1 120116Z 29011KT 26/19 A3005 RMK A01 T02620192  RH  065%=      5-min Rain = 0
KTA1 120117Z 29011KT 26/19 A3005 RMK A01 T02620191  RH  065%=      5-min Rain = 0
KTA1 120118Z 29012KT 26/19 A3005 RMK A01 T02610188  RH  064%=      5-min Rain = 0
KTA1 120119Z 30013KT 26/18 A3005 RMK A01 T02600184  RH  063%=      5-min Rain = 0
KTA1 120120Z 30011KT 26/18 A3005 RMK A01 T02580182  RH  063%=      5-min Rain = 0
KTA1 120121Z 30007KT 26/18 A3005 RMK A01 T02570181  RH  063%=      5-min Rain = 0
KTA1 120122Z 29008KT 26/18 A3005 RMK A01 T02570182  RH  063%=      5-min Rain = 0
KTA1 120123Z 28011KT 26/18 A3005 RMK A01 T02560180  RH  063%=      5-min Rain = 0
KTA1 120124Z 28010KT 26/18 A3005 RMK A01 T02560180  RH  063%=      5-min Rain = 0
KTA1 120125Z 28009KT 26/18 A3005 RMK A01 T02560180  RH  063%=      5-min Rain = 0
KTA1 120126Z 28009KT 26/18 A3005 RMK A01 T02560180  RH  063%=      5-min Rain = 0
KTA1 120127Z 28008KT 26/18 A3005 RMK A01 T02560180  RH  063%=      5-min Rain = 0
KTA1 120128Z 28008KT 26/18 A3005 RMK A01 T02560180  RH  063%=      5-min Rain = 0
KTA1 120129Z 28007KT 26/18 A3005 RMK A01 T02560180  RH  063%=      5-min Rain = 0
KTA1 120130Z 28007KT 26/18 A3005 RMK A01 T02560181  RH  063%=      5-min Rain = 0
KTA1 120131Z 29008KT 26/18 A3005 RMK A01 T02560181  RH  063%=      5-min Rain = 0
KTA1 120132Z 28010KT 26/18 A3006 RMK A01 T02560181  RH  063%=      5-min Rain = 0
KTA1 120133Z 28011KT 26/18 A3006 RMK A01 T02550179  RH  063%=      5-min Rain = 0
KTA1 120134Z 29011KT 26/18 A3006 RMK A01 T02550178  RH  062%=      5-min Rain = 0
KTA1 120135Z 29009KT 25/18 A3006 RMK A01 T02540177  RH  062%=      5-min Rain = 0
KTA1 120136Z 29008KT 25/18 A3006 RMK A01 T02540177  RH  063%=      5-min Rain = 0
KTA1 120137Z 29007KT 25/18 A3006 RMK A01 T02530177  RH  063%=      5-min Rain = 0
KTA1 120138Z 29008KT 25/18 A3006 RMK A01 T02530177  RH  063%=      5-min Rain = 0
KTA1 120139Z 29006KT 25/18 A3006 RMK A01 T02530177  RH  063%=      5-min Rain = 0
KTA1 120140Z 28006KT 25/18 A3006 RMK A01 T02520177  RH  063%=      5-min Rain = 0
KTA1 120141Z 27005KT 25/18 A3006 RMK A01 T02530178  RH  063%=      5-min Rain = 0
KTA1 120142Z 28006KT 25/18 A3006 RMK A01 T02530178  RH  063%=      5-min Rain = 0
KTA1 120143Z 28007KT 25/18 A3006 RMK A01 T02520178  RH  063%=      5-min Rain = 0
KTA1 120144Z 29005KT 25/18 A3006 RMK A01 T02520178  RH  063%=      5-min Rain = 0
KTA1 120145Z 29005KT 25/18 A3006 RMK A01 T02520178  RH  063%=      5-min Rain = 0
KTA1 120146Z 29005KT 25/18 A3006 RMK A01 T02520178  RH  063%=      5-min Rain = 0
KTA1 120147Z 30004KT 25/18 A3006 RMK A01 T02520178  RH  064%=      5-min Rain = 0
KTA1 120148Z 30006KT 25/18 A3006 RMK A01 T02520179  RH  064%=      5-min Rain = 0
KTA1 120149Z 29007KT 25/18 A3006 RMK A01 T02520178  RH  064%=      5-min Rain = 0
KTA1 120150Z 29007KT 25/18 A3006 RMK A01 T02510178  RH  064%=      5-min Rain = 0
KTA1 120151Z 29006KT 25/18 A3006 RMK A01 T02520178  RH  064%=      5-min Rain = 0
KTA1 120152Z 29004KT 25/18 A3006 RMK A01 T02510178  RH  064%=      5-min Rain = 0
KTA1 120153Z 29004KT 25/18 A3006 RMK A01 T02510179  RH  064%=      5-min Rain = 0
KTA1 120154Z 29004KT 25/18 A3005 RMK A01 T02510179  RH  064%=      5-min Rain = 0
KTA1 120155Z 29003KT 25/18 A3005 RMK A01 T02510179  RH  064%=      5-min Rain = 0
KTA1 120156Z 29002KT 25/18 A3005 RMK A01 T02510178  RH  064%=      5-min Rain = 0
KTA1 120157Z 29002KT 25/18 A3005 RMK A01 T02510179  RH  064%=      5-min Rain = 0
KTA1 120158Z 28002KT 25/18 A3005 RMK A01 T02510179  RH  064%=      5-min Rain = 0
KTA1 120159Z 28002KT 25/18 A3005 RMK A01 T02510179  RH  064%=      5-min Rain = 0
KTA1 120200Z 28002KT 25/18 A3005 RMK A01 T02510179  RH  064%=      5-min Rain = 0
KTA1 120201Z 27002KT 25/18 A3005 RMK A01 T02510179  RH  064%=      5-min Rain = 0
KTA1 120202Z 27002KT 25/18 A3005 RMK A01 T02510179  RH  064%=      5-min Rain = 0
KTA1 120203Z 28002KT 25/18 A3005 RMK A01 T02510179  RH  064%=      5-min Rain = 0
KTA1 120204Z 25001KT 25/18 A3005 RMK A01 T02510179  RH  064%=      5-min Rain = 0
KTA1 120205Z 24001KT 25/18 A3005 RMK A01 T02510180  RH  065%=      5-min Rain = 0
KTA1 120206Z 22001KT 25/18 A3005 RMK A01 T02510180  RH  065%=      5-min Rain = 0
KTA1 120207Z 21001KT 25/18 A3005 RMK A01 T02510180  RH  065%=      5-min Rain = 0
KTA1 120208Z 21002KT 25/18 A3005 RMK A01 T02510180  RH  065%=      5-min Rain = 0
KTA1 120209Z 21002KT 25/18 A3005 RMK A01 T02500179  RH  065%=      5-min Rain = 0
KTA1 120210Z 21002KT 25/18 A3005 RMK A01 T02500180  RH  065%=      5-min Rain = 0
KTA1 120211Z 20002KT 25/18 A3005 RMK A01 T02500180  RH  065%=      5-min Rain = 0
KTA1 120212Z 20002KT 25/18 A3005 RMK A01 T02500180  RH  065%=      5-min Rain = 0
KTA1 120213Z 19003KT 25/18 A3005 RMK A01 T02500180  RH  065%=      5-min Rain = 0
KTA1 120214Z 19003KT 25/18 A3005 RMK A01 T02500180  RH  065%=      5-min Rain = 0
KTA1 120215Z 18003KT 25/18 A3005 RMK A01 T02500180  RH  065%=      5-min Rain = 0
KTA1 120216Z 17003KT 25/18 A3005 RMK A01 T02490180  RH  065%=      5-min Rain = 0
KTA1 120217Z 16003KT 25/18 A3004 RMK A01 T02490180  RH  066%=      5-min Rain = 0
KTA1 120218Z 16003KT 25/18 A3004 RMK A01 T02490180  RH  066%=      5-min Rain = 0
KTA1 120219Z 16004KT 25/18 A3004 RMK A01 T02480181  RH  066%=      5-min Rain = 0
KTA1 120220Z 16004KT 25/18 A3004 RMK A01 T02480180  RH  066%=      5-min Rain = 0
KTA1 120221Z 16005KT 25/18 A3004 RMK A01 T02480181  RH  066%=      5-min Rain = 0
KTA1 120222Z 15005KT 25/18 A3004 RMK A01 T02480180  RH  066%=      5-min Rain = 0
KTA1 120223Z 15005KT 25/18 A3004 RMK A01 T02470180  RH  066%=      5-min Rain = 0
KTA1 120224Z 15005KT 25/18 A3004 RMK A01 T02480181  RH  066%=      5-min Rain = 0
KTA1 120225Z 15006KT 25/18 A3004 RMK A01 T02470181  RH  066%=      5-min Rain = 0
KTA1 120226Z 15005KT 25/18 A3004 RMK A01 T02470180  RH  066%=      5-min Rain = 0
KTA1 120227Z 15006KT 25/18 A3004 RMK A01 T02470180  RH  066%=      5-min Rain = 0
KTA1 120228Z 15005KT 25/18 A3004 RMK A01 T02480181  RH  066%=      5-min Rain = 0
KTA1 120229Z 15005KT 25/18 A3004 RMK A01 T02470181  RH  066%=      5-min Rain = 0
KTA1 120230Z 15006KT 25/18 A3004 RMK A01 T02480181  RH  066%=      5-min Rain = 0
KTA1 120231Z 15004KT 25/18 A3004 RMK A01 T02470180  RH  066%=      5-min Rain = 0
KTA1 120232Z 15004KT 25/18 A3004 RMK A01 T02470181  RH  066%=      5-min Rain = 0
KTA1 120233Z 15004KT 25/18 A3004 RMK A01 T02470181  RH  066%=      5-min Rain = 0
KTA1 120234Z 14003KT 25/18 A3004 RMK A01 T02480181  RH  067%=      5-min Rain = 0
KTA1 120235Z 15004KT 25/18 A3004 RMK A01 T02470181  RH  067%=      5-min Rain = 0
KTA1 120236Z 15004KT 25/18 A3004 RMK A01 T02470181  RH  067%=      5-min Rain = 0
KTA1 120237Z 15003KT 25/18 A3004 RMK A01 T02470181  RH  067%=      5-min Rain = 0
KTA1 120238Z 15003KT 25/18 A3004 RMK A01 T02470182  RH  067%=      5-min Rain = 0
KTA1 120239Z 15003KT 25/18 A3004 RMK A01 T02470182  RH  067%=      5-min Rain = 0
KTA1 120240Z 15003KT 25/18 A3004 RMK A01 T02470182  RH  067%=      5-min Rain = 0
KTA1 120241Z 16003KT 25/18 A3004 RMK A01 T02470182  RH  067%=      5-min Rain = 0
KTA1 120242Z 16003KT 25/18 A3004 RMK A01 T02480182  RH  067%=      5-min Rain = 0
KTA1 120243Z 16004KT 25/18 A3004 RMK A01 T02470182  RH  067%=      5-min Rain = 0
KTA1 120244Z 16004KT 25/18 A3004 RMK A01 T02470181  RH  067%=      5-min Rain = 0
KTA1 120245Z 16004KT 25/18 A3004 RMK A01 T02470181  RH  067%=      5-min Rain = 0
KTA1 120246Z 16005KT 25/18 A3004 RMK A01 T02470181  RH  067%=      5-min Rain = 0
KTA1 120247Z 15005KT 25/18 A3004 RMK A01 T02470182  RH  067%=      5-min Rain = 0
KTA1 120248Z 15004KT 25/18 A3004 RMK A01 T02470182  RH  067%=      5-min Rain = 0
KTA1 120249Z 15003KT 25/18 A3004 RMK A01 T02470182  RH  067%=      5-min Rain = 0
KTA1 120250Z 14003KT 25/18 A3004 RMK A01 T02470182  RH  067%=      5-min Rain = 0
KTA1 120251Z 14003KT 25/18 A3004 RMK A01 T02470182  RH  067%=      5-min Rain = 0
KTA1 120252Z 14003KT 25/18 A3004 RMK A01 T02470182  RH  067%=      5-min Rain = 0
KTA1 120253Z 14003KT 25/18 A3004 RMK A01 T02470183  RH  068%=      5-min Rain = 0
KTA1 120254Z 14003KT 25/18 A3004 RMK A01 T02470183  RH  068%=      5-min Rain = 0
KTA1 120255Z 13004KT 25/18 A3004 RMK A01 T02470183  RH  068%=      5-min Rain = 0
KTA1 120256Z 14004KT 25/18 A3005 RMK A01 T02460182  RH  068%=      5-min Rain = 0
KTA1 120257Z 13004KT 25/18 A3005 RMK A01 T02470183  RH  068%=      5-min Rain = 0
KTA1 120258Z 14004KT 25/18 A3005 RMK A01 T02470183  RH  068%=      5-min Rain = 0
KTA1 120259Z 14003KT 25/18 A3005 RMK A01 T02470183  RH  068%=      5-min Rain = 0
KTA1 120300Z 14004KT 25/18 A3005 RMK A01 T02460183  RH  068%=      5-min Rain = 0
KTA1 120301Z 14004KT 25/18 A3005 RMK A01 T02460183  RH  068%=      5-min Rain = 0
KTA1 120302Z 15004KT 25/18 A3005 RMK A01 T02470184  RH  068%=      5-min Rain = 0
KTA1 120303Z 15004KT 25/18 A3005 RMK A01 T02470184  RH  068%=      5-min Rain = 0
KTA1 120304Z 15004KT 25/19 A3005 RMK A01 T02470185  RH  068%=      5-min Rain = 0
KTA1 120305Z 15004KT 25/19 A3005 RMK A01 T02470185  RH  068%=      5-min Rain = 0
KTA1 120306Z 16004KT 25/19 A3005 RMK A01 T02470185  RH  068%=      5-min Rain = 0
KTA1 120307Z 16004KT 25/19 A3005 RMK A01 T02470185  RH  068%=      5-min Rain = 0
KTA1 120308Z 16005KT 25/19 A3005 RMK A01 T02480185  RH  068%=      5-min Rain = 0
KTA1 120309Z 16004KT 25/19 A3005 RMK A01 T02470185  RH  068%=      5-min Rain = 0
KTA1 120310Z 16005KT 25/19 A3005 RMK A01 T02470185  RH  068%=      5-min Rain = 0
KTA1 120311Z 16005KT 25/19 A3005 RMK A01 T02480186  RH  068%=      5-min Rain = 0
KTA1 120312Z 16004KT 25/19 A3005 RMK A01 T02480186  RH  068%=      5-min Rain = 0
KTA1 120313Z 16004KT 25/19 A3005 RMK A01 T02480186  RH  068%=      5-min Rain = 0
KTA1 120314Z 16004KT 25/19 A3005 RMK A01 T02480186  RH  068%=      5-min Rain = 0
KTA1 120315Z 16004KT 25/19 A3005 RMK A01 T02480186  RH  068%=      5-min Rain = 0
KTA1 120316Z 16004KT 25/19 A3005 RMK A01 T02480186  RH  068%=      5-min Rain = 0
KTA1 120317Z 15004KT 25/19 A3005 RMK A01 T02480187  RH  068%=      5-min Rain = 0
KTA1 120318Z 16005KT 25/19 A3005 RMK A01 T02480187  RH  069%=      5-min Rain = 0
KTA1 120319Z 16005KT 25/19 A3005 RMK A01 T02480187  RH  069%=      5-min Rain = 0
KTA1 120320Z 16006KT 25/19 A3005 RMK A01 T02490187  RH  069%=      5-min Rain = 0
KTA1 120321Z 16006KT 25/19 A3005 RMK A01 T02490188  RH  069%=      5-min Rain = 0
KTA1 120322Z 16007KT 25/19 A3005 RMK A01 T02500189  RH  069%=      5-min Rain = 0
KTA1 120323Z 16007KT 25/19 A3005 RMK A01 T02500189  RH  069%=      5-min Rain = 0
KTA1 120324Z 16007KT 25/19 A3005 RMK A01 T02500189  RH  069%=      5-min Rain = 0
KTA1 120325Z 15007KT 25/19 A3005 RMK A01 T02510190  RH  069%=      5-min Rain = 0
KTA1 120326Z 16008KT 25/19 A3005 RMK A01 T02520191  RH  069%=      5-min Rain = 0
KTA1 120327Z 16007KT 25/19 A3005 RMK A01 T02530192  RH  069%=      5-min Rain = 0
KTA1 120328Z 16008KT 25/19 A3005 RMK A01 T02540192  RH  069%=      5-min Rain = 0
KTA1 120329Z 16008KT 26/19 A3005 RMK A01 T02550193  RH  068%=      5-min Rain = 0
KTA1 120330Z 16007KT 26/19 A3005 RMK A01 T02560193  RH  068%=      5-min Rain = 0
KTA1 120331Z 16007KT 26/19 A3005 RMK A01 T02570193  RH  068%=      5-min Rain = 0
KTA1 120332Z 16008KT 26/19 A3005 RMK A01 T02570193  RH  068%=      5-min Rain = 0
KTA1 120333Z 16008KT 26/19 A3005 RMK A01 T02580194  RH  068%=      5-min Rain = 0
KTA1 120334Z 16009KT 26/19 A3005 RMK A01 T02590194  RH  067%=      5-min Rain = 0
KTA1 120335Z 16008KT 26/19 A3005 RMK A01 T02600194  RH  067%=      5-min Rain = 0
KTA1 120336Z 16008KT 26/19 A3005 RMK A01 T02600194  RH  067%=      5-min Rain = 0
KTA1 120337Z 16010KT 26/19 A3005 RMK A01 T02600194  RH  067%=      5-min Rain = 0
KTA1 120338Z 16009KT 26/19 A3005 RMK A01 T02610194  RH  066%=      5-min Rain = 0
KTA1 120339Z 16011KT 26/19 A3005 RMK A01 T02620194  RH  066%=      5-min Rain = 0
KTA1 120340Z 16009KT 26/19 A3005 RMK A01 T02620194  RH  066%=      5-min Rain = 0
KTA1 120341Z 16011KT 26/19 A3005 RMK A01 T02620194  RH  066%=      5-min Rain = 0
KTA1 120342Z 16009KT 26/19 A3005 RMK A01 T02630194  RH  066%=      5-min Rain = 0
KTA1 120343Z 16012KT 26/19 A3004 RMK A01 T02630194  RH  066%=      5-min Rain = 0
KTA1 120344Z 15010KT 26/19 A3004 RMK A01 T02630193  RH  066%=      5-min Rain = 0
KTA1 120345Z 16010KT 26/19 A3004 RMK A01 T02630193  RH  066%=      5-min Rain = 0
KTA1 120346Z 16010KT 26/19 A3004 RMK A01 T02630193  RH  066%=      5-min Rain = 0
KTA1 120347Z 16011KT 26/19 A3004 RMK A01 T02630194  RH  066%=      5-min Rain = 0
KTA1 120348Z 16012KT 26/19 A3004 RMK A01 T02630193  RH  066%=      5-min Rain = 0
KTA1 120349Z 15011KT 26/19 A3004 RMK A01 T02630193  RH  066%=      5-min Rain = 0
KTA1 120350Z 16011KT 26/19 A3004 RMK A01 T02630193  RH  066%=      5-min Rain = 0
KTA1 120351Z 16012KT 26/19 A3004 RMK A01 T02630193  RH  065%=      5-min Rain = 0
KTA1 120352Z 16012KT 26/19 A3004 RMK A01 T02630193  RH  065%=      5-min Rain = 0
KTA1 120353Z 16011KT 26/19 A3004 RMK A01 T02630193  RH  065%=      5-min Rain = 0
KTA1 120354Z 15011KT 26/19 A3004 RMK A01 T02630193  RH  066%=      5-min Rain = 0
KTA1 120355Z 15010KT 26/19 A3004 RMK A01 T02630194  RH  066%=      5-min Rain = 0
KTA1 120356Z 16011KT 26/19 A3004 RMK A01 T02630194  RH  066%=      5-min Rain = 0
KTA1 120357Z 15012KT 26/19 A3004 RMK A01 T02620194  RH  066%=      5-min Rain = 0
KTA1 120358Z 15010KT 26/19 A3004 RMK A01 T02620193  RH  066%=      5-min Rain = 0
KTA1 120359Z 16013KT 26/19 A3004 RMK A01 T02630194  RH  066%=      5-min Rain = 0
KTA1 120400Z 16013KT 26/19 A3004 RMK A01 T02620193  RH  066%=      5-min Rain = 0
KTA1 120401Z 16012KT 26/19 A3004 RMK A01 T02630193  RH  065%=      5-min Rain = 0
KTA1 120402Z 15011KT 26/19 A3004 RMK A01 T02620193  RH  065%=      5-min Rain = 0
KTA1 120403Z 15010KT 26/19 A3004 RMK A01 T02630193  RH  065%=      5-min Rain = 0
KTA1 120404Z 16009KT 26/19 A3004 RMK A01 T02620193  RH  066%=      5-min Rain = 0
KTA1 120405Z 16012KT 26/19 A3004 RMK A01 T02620193  RH  066%=      5-min Rain = 0
KTA1 120406Z 16011KT 26/19 A3004 RMK A01 T02620192  RH  066%=      5-min Rain = 0
KTA1 120407Z 16012KT 26/19 A3004 RMK A01 T02620192  RH  065%=      5-min Rain = 0
KTA1 120408Z 15009KT 26/19 A3004 RMK A01 T02620192  RH  065%=      5-min Rain = 0
KTA1 120409Z 16010KT 26/19 A3004 RMK A01 T02620193  RH  066%=      5-min Rain = 0
KTA1 120410Z 16011KT 26/19 A3004 RMK A01 T02620193  RH  066%=      5-min Rain = 0
KTA1 120411Z 16011KT 26/19 A3004 RMK A01 T02620193  RH  066%=      5-min Rain = 0
KTA1 120412Z 15010KT 26/19 A3004 RMK A01 T02620192  RH  066%=      5-min Rain = 0
KTA1 120413Z 16012KT 26/19 A3004 RMK A01 T02610192  RH  066%=      5-min Rain = 0
KTA1 120414Z 15010KT 26/19 A3004 RMK A01 T02620192  RH  065%=      5-min Rain = 0
KTA1 120415Z 15011KT 26/19 A3004 RMK A01 T02620192  RH  065%=      5-min Rain = 0
KTA1 120416Z 15011KT 26/19 A3004 RMK A01 T02610192  RH  065%=      5-min Rain = 0
KTA1 120417Z 16010KT 26/19 A3004 RMK A01 T02620191  RH  065%=      5-min Rain = 0
KTA1 120418Z 15011KT 26/19 A3004 RMK A01 T02620191  RH  065%=      5-min Rain = 0
KTA1 120419Z 15010KT 26/19 A3004 RMK A01 T02620191  RH  065%=      5-min Rain = 0
KTA1 120420Z 15011KT 26/19 A3004 RMK A01 T02620191  RH  065%=      5-min Rain = 0
KTA1 120421Z 15011KT 26/19 A3004 RMK A01 T02610190  RH  065%=      5-min Rain = 0
KTA1 120422Z 15010KT 26/19 A3005 RMK A01 T02620190  RH  065%=      5-min Rain = 0
KTA1 120423Z 15010KT 26/19 A3005 RMK A01 T02610190  RH  065%=      5-min Rain = 0
KTA1 120424Z 15011KT 26/19 A3005 RMK A01 T02620190  RH  065%=      5-min Rain = 0
KTA1 120425Z 15012KT 26/19 A3005 RMK A01 T02620190  RH  065%=      5-min Rain = 0
KTA1 120426Z 15011KT 26/19 A3005 RMK A01 T02620190  RH  064%=      5-min Rain = 0
KTA1 120427Z 15010KT 26/19 A3005 RMK A01 T02610189  RH  064%=      5-min Rain = 0
KTA1 120428Z 15010KT 26/19 A3005 RMK A01 T02620189  RH  064%=      5-min Rain = 0
KTA1 120429Z 15009KT 26/19 A3005 RMK A01 T02620189  RH  064%=      5-min Rain = 0
KTA1 120430Z 15011KT 26/19 A3005 RMK A01 T02620189  RH  064%=      5-min Rain = 0
KTA1 120431Z 15011KT 26/19 A3005 RMK A01 T02610188  RH  064%=      5-min Rain = 0
KTA1 120432Z 15010G15KT 26/19 A3005 RMK A01 T02620189  RH  064%=      5-min Rain = 0
KTA1 120433Z 15010KT 26/19 A3005 RMK A01 T02620188  RH  064%=      5-min Rain = 0
KTA1 120434Z 15009KT 26/19 A3005 RMK A01 T02620188  RH  064%=      5-min Rain = 0
KTA1 120435Z 15009KT 26/19 A3005 RMK A01 T02610188  RH  064%=      5-min Rain = 0
KTA1 120436Z 15011KT 26/19 A3005 RMK A01 T02610188  RH  064%=      5-min Rain = 0
KTA1 120437Z 15010KT 26/19 A3005 RMK A01 T02610188  RH  064%=      5-min Rain = 0
KTA1 120438Z 15010KT 26/19 A3005 RMK A01 T02610188  RH  064%=      5-min Rain = 0
KTA1 120439Z 14011KT 26/19 A3005 RMK A01 T02610188  RH  064%=      5-min Rain = 0
KTA1 120440Z 15010KT 26/19 A3005 RMK A01 T02610187  RH  064%=      5-min Rain = 0
KTA1 120441Z 15010G15KT 26/19 A3006 RMK A01 T02610187  RH  064%=      5-min Rain = 0
KTA1 120442Z 15012KT 26/19 A3006 RMK A01 T02610187  RH  064%=      5-min Rain = 0
KTA1 120443Z 15011KT 26/19 A3006 RMK A01 T02610186  RH  064%=      5-min Rain = 0
KTA1 120444Z 14012KT 26/19 A3006 RMK A01 T02610186  RH  063%=      5-min Rain = 0
KTA1 120445Z 15009KT 26/19 A3006 RMK A01 T02610186  RH  063%=      5-min Rain = 0
KTA1 120446Z 14010KT 26/19 A3006 RMK A01 T02610186  RH  063%=      5-min Rain = 0
KTA1 120447Z 15010KT 26/19 A3006 RMK A01 T02610186  RH  063%=      5-min Rain = 0
KTA1 120448Z 14011KT 26/19 A3006 RMK A01 T02610186  RH  063%=      5-min Rain = 0
KTA1 120449Z 15011KT 26/19 A3006 RMK A01 T02610186  RH  063%=      5-min Rain = 0
KTA1 120450Z 14011KT 26/19 A3006 RMK A01 T02600185  RH  063%=      5-min Rain = 0
KTA1 120451Z 15012KT 26/19 A3006 RMK A01 T02610185  RH  063%=      5-min Rain = 0
KTA1 120452Z 15010KT 26/18 A3006 RMK A01 T02610184  RH  063%=      5-min Rain = 0
KTA1 120453Z 15009KT 26/18 A3006 RMK A01 T02610184  RH  063%=      5-min Rain = 0
KTA1 120454Z 15011KT 26/18 A3006 RMK A01 T02610184  RH  063%=      5-min Rain = 0
KTA1 120455Z 15010KT 26/18 A3006 RMK A01 T02610184  RH  063%=      5-min Rain = 0
KTA1 120456Z 15011KT 26/18 A3006 RMK A01 T02600184  RH  063%=      5-min Rain = 0
KTA1 120457Z 15010KT 26/18 A3006 RMK A01 T02610184  RH  063%=      5-min Rain = 0
KTA1 120458Z 15010KT 26/18 A3006 RMK A01 T02610184  RH  063%=      5-min Rain = 0
KTA1 120459Z 15012KT 26/18 A3006 RMK A01 T02600184  RH  063%=      5-min Rain = 0

Page generated in 0.0776 seconds.